GFSNE_250_rhum_000.txt.gz
RH
94 72 55 55 75 80 71 76 49 35 36 42 44 60 79 84 87 85 68 61 40 43 45 48 62 72 87 89 80 69 62 76 79 100 100 99 99 98
53 51 62 67 55 47 37 38 31 29 32 39 42 38 40 45 55 57 49 46 45 48 50 62 65 72 71 69 73 68 63 78 72 99 100 99 98 78
44 31 30 27 24 25 28 26 26 28 26 29 34 31 32 36 37 42 46 47 49 54 56 63 74 75 65 58 67 63 79 80 76 88 94 82 80 79
28 25 24 21 21 19 18 20 19 19 22 21 24 25 31 34 34 40 44 44 49 63 67 61 66 68 69 54 59 68 86 74 78 94 90 90 82 93
23 20 18 18 17 15 14 15 18 18 18 16 17 21 22 25 28 32 36 38 41 53 57 64 72 67 59 53 60 89 88 76 83 88 89 93 99 89
15 13 13 14 14 14 14 16 19 19 20 21 19 22 23 22 21 26 37 40 42 35 59 53 63 52 59 55 74 88 80 99 100 94 95 95 92 88
12 11 12 12 13 13 11 13 14 13 15 18 16 16 19 23 24 26 26 30 40 57 69 55 44 44 78 54 98 98 98 100 100 92 86 98 99 85
14 14 11 10 9 8 9 10 11 12 12 11 10 12 15 18 17 16 21 24 25 42 54 56 44 36 50 100 100 100 100 100 100 100 100 100 99 100
10 9 10 9 8 8 8 8 7 6 6 7 9 13 14 14 13 15 18 22 24 34 39 37 29 36 67 100 100 100 100 100 100 100 100 100 100 100
5 6 8 7 6 6 5 6 6 7 7 7 8 10 11 13 14 15 18 20 25 31 29 22 30 59 95 100 100 100 100 100 100 100 100 100 100 87
4 5 5 5 5 5 5 6 7 8 8 7 6 7 8 9 11 10 11 12 14 16 17 20 42 56 99 100 100 100 100 100 100 100 100 100 100 100
5 6 7 6 6 6 6 7 9 11 10 8 6 8 10 10 10 13 14 14 16 21 26 33 40 59 100 100 100 100 100 100 97 100 100 100 100 97
5 6 7 6 7 7 8 9 10 11 11 9 10 11 12 13 15 15 17 20 22 25 29 38 54 93 100 100 100 100 100 100 100 100 100 100 99 99
5 6 6 6 6 6 7 8 9 9 11 13 13 13 14 15 17 18 19 22 24 29 45 68 91 99 100 100 100 100 100 100 100 96 100 94 98 100
4 5 6 6 6 6 6 8 9 10 11 12 13 13 14 15 17 19 22 24 30 46 59 54 54 67 79 100 100 100 100 100 100 96 94 98 98 91
4 5 5 6 6 6 6 8 9 9 10 10 11 14 14 15 16 19 24 36 46 44 39 46 68 84 99 100 100 100 100 100 100 100 94 90 91 94
3 3 4 5 6 6 6 7 8 9 10 10 11 16 18 19 20 29 39 37 24 38 86 100 100 100 100 100 100 100 100 98 98 98 87 90 81 63
3 3 4 4 5 6 6 7 7 9 10 11 17 21 24 27 28 29 19 14 25 68 94 100 100 100 100 98 100 100 100 94 91 88 90 66 56 50
4 4 4 5 6 7 7 7 8 9 11 18 25 23 14 12 13 16 14 26 53 87 90 90 93 94 100 100 100 93 92 90 80 65 58 46 36 31
4 4 5 6 7 8 9 9 8 10 17 26 27 19 19 21 20 27 29 30 45 83 92 91 93 95 96 99 93 88 76 62 54 49 38 29 20 14
5 6 6 7 8 9 9 10 11 15 22 30 29 30 23 20 29 50 60 85 84 80 84 87 97 97 87 75 68 58 58 51 37 27 17 12 9 8
7 8 8 8 8 9 11 11 11 18 26 31 30 20 20 33 79 87 93 95 95 94 94 93 83 69 61 53 56 48 38 35 24 13 9 6 6 5
8 9 10 9 10 11 13 13 15 19 24 23 18 26 44 57 86 100 98 98 100 98 84 69 61 54 58 58 38 31 23 14 9 7 5 6 6 5

GFSNE_250_rhum_003.txt.gz
RH
48 47 42 40 48 56 53 48 41 34 32 36 32 32 32 33 30 31 32 35 33 35 40 39 41 47 53 60 58 60 56 63 69 78 88 84 78 66
53 49 41 36 35 34 34 31 31 24 19 20 23 26 25 26 25 25 27 28 28 27 31 37 37 36 39 42 50 52 47 50 71 84 94 86 77 68
40 37 30 24 22 22 19 18 17 16 15 16 16 19 20 22 23 25 28 32 28 29 30 36 42 41 38 38 44 45 45 67 89 87 82 90 75 74
24 21 18 15 14 14 14 15 14 13 13 11 14 16 17 18 19 24 24 26 32 34 40 38 36 37 42 52 53 45 57 72 78 84 88 93 75 81
18 16 16 15 14 12 13 13 12 8 10 10 10 12 15 16 16 18 20 24 26 32 33 40 41 42 44 53 57 64 68 70 91 97 97 84 82 83
13 13 13 12 8 9 11 10 9 8 8 8 6 6 8 11 12 13 13 16 21 24 25 30 35 35 37 59 62 74 83 83 100 100 90 80 84 91
9 8 8 8 6 7 7 7 6 5 5 6 5 7 9 9 10 12 12 15 18 21 20 23 25 26 32 46 61 68 76 78 91 99 89 84 79 97
7 8 8 7 6 5 5 4 4 4 4 4 6 7 7 9 10 8 7 10 14 13 13 17 20 28 41 49 49 50 60 66 75 82 82 87 100 100
6 5 5 5 5 5 5 4 4 4 4 5 6 6 6 6 5 5 5 6 7 10 12 15 20 24 29 34 47 50 55 62 75 86 100 100 100 100
4 4 4 5 5 4 6 6 5 6 6 5 6 7 7 7 6 6 6 7 8 11 14 16 20 20 27 39 44 45 52 56 74 100 100 100 100 100
4 4 4 4 5 4 5 6 7 8 8 8 7 8 8 8 7 7 8 7 9 10 11 10 15 20 25 33 34 35 47 56 95 100 100 100 100 100
4 4 4 4 4 5 5 6 7 7 8 8 8 9 10 10 10 10 10 8 8 11 10 10 12 14 16 21 24 28 44 80 100 100 100 100 100 100
3 3 3 4 4 4 4 5 6 7 7 8 7 7 9 9 9 10 9 11 13 14 13 14 15 18 20 24 34 49 75 98 100 100 100 100 100 100
2 2 3 3 3 3 3 4 6 6 6 6 7 7 9 9 11 11 12 14 15 16 17 18 21 25 31 35 37 51 76 90 100 100 100 100 100 100
2 2 2 3 3 3 3 4 5 6 6 7 7 10 11 10 10 12 14 14 16 18 20 22 24 28 31 39 50 75 93 100 100 100 100 100 100 100
2 2 3 3 3 3 3 4 4 5 6 7 9 10 10 9 10 12 14 15 17 20 23 29 35 47 64 83 90 97 100 96 89 91 100 100 100 100
3 3 4 4 4 4 4 4 5 5 6 7 9 9 10 10 11 14 16 17 19 21 26 44 52 49 51 56 60 72 90 91 94 100 100 100 100 100
3 4 4 4 4 4 4 5 5 6 6 7 8 10 10 12 16 18 20 22 24 34 39 30 30 36 52 74 89 98 100 100 100 100 100 100 99 97
4 5 5 5 5 5 5 6 6 7 7 8 9 10 14 20 22 24 25 24 21 20 21 25 40 75 84 84 92 95 92 94 95 91 90 75 79 89
4 6 6 6 6 6 6 7 8 8 9 10 11 17 23 24 21 22 20 23 25 23 31 48 72 89 92 85 83 83 81 78 75 74 72 70 64 58
5 6 7 7 7 7 7 8 9 10 11 13 21 27 25 22 25 24 27 36 50 49 50 65 77 76 74 82 84 77 72 64 65 63 55 41 28 24
5 6 7 9 9 8 9 10 11 13 18 25 27 26 28 26 22 31 54 59 73 88 90 81 74 71 70 70 73 66 59 50 38 27 21 18 16 12
4 5 7 9 9 10 11 13 13 15 22 27 28 26 21 23 58 82 86 88 86 74 65 71 68 66 56 53 52 43 30 22 16 12 11 9 6 5

GFSNE_250_rhum_006.txt.gz
RH
73 72 61 48 39 33 28 24 20 15 16 20 19 18 17 19 22 24 25 26 30 31 32 29 27 30 35 35 36 31 31 33 34 34 39 48 56 64
44 40 33 27 25 24 22 23 20 13 8 11 12 11 12 12 15 18 20 20 23 24 26 28 27 26 32 34 40 41 41 40 41 40 37 45 50 54
32 28 27 24 23 21 22 21 20 17 9 9 8 8 8 7 10 11 12 13 16 20 22 21 23 21 23 28 33 42 52 45 44 42 40 54 54 57
33 30 23 20 18 18 18 16 11 9 7 5 7 8 7 7 7 8 8 9 11 13 15 15 17 18 19 26 31 37 45 52 61 42 56 50 55 59
19 16 15 14 11 11 8 8 8 8 7 6 6 6 8 7 7 6 6 8 9 10 11 13 14 16 17 18 22 28 36 45 46 67 54 66 59 67
13 10 7 7 7 7 6 6 5 6 5 4 4 5 5 8 6 5 5 5 6 7 8 9 10 11 13 14 19 21 27 33 39 58 81 88 69 96
8 7 6 6 5 4 4 4 3 4 4 3 3 4 5 6 5 5 4 4 5 5 6 8 11 12 14 16 18 18 24 34 36 37 48 59 84 100
6 5 4 4 3 3 2 3 3 3 3 3 4 4 5 4 5 4 4 4 6 5 6 9 8 16 19 18 21 24 27 27 29 35 38 54 75 96
3 3 3 3 2 2 3 3 3 3 3 3 4 5 5 5 5 6 5 6 6 7 6 7 7 8 10 10 12 14 20 21 26 32 50 69 89 100
2 2 2 2 3 2 3 4 4 4 3 3 3 4 5 6 6 6 7 8 9 9 7 9 7 8 7 7 8 10 17 22 34 45 55 63 73 89
2 2 2 2 2 2 2 3 4 4 3 3 4 4 5 5 5 6 8 10 11 10 8 10 8 7 8 8 9 13 18 25 31 36 48 58 76 80
2 2 2 2 2 2 2 2 2 3 3 3 4 4 5 6 6 7 8 8 10 11 9 11 11 10 9 9 10 13 14 20 28 34 42 52 62 82
2 2 2 2 2 2 2 2 2 2 3 3 3 4 5 6 6 6 7 8 10 11 8 11 10 9 9 9 11 13 15 19 22 26 36 48 72 98
2 2 2 2 2 3 3 3 3 3 3 3 3 4 5 5 6 6 7 10 11 10 11 11 10 12 14 15 16 18 20 22 24 30 39 70 90 100
2 2 2 2 2 2 3 4 4 4 3 3 3 4 5 6 6 8 10 10 11 13 14 15 16 17 18 20 22 24 30 38 42 52 71 82 96 100
2 1 1 2 2 3 3 4 4 4 4 4 4 5 6 6 8 9 10 9 11 14 16 17 19 20 22 23 25 29 35 40 54 62 83 90 100 100
2 2 2 2 3 4 5 5 5 5 5 6 6 6 6 7 9 10 10 11 13 16 16 18 19 22 30 39 50 62 72 79 78 75 84 90 93 96
3 2 2 2 4 5 6 6 6 6 7 6 7 7 8 9 10 11 13 16 17 16 17 19 23 33 47 56 60 56 61 65 68 80 87 92 96 91
4 2 3 4 5 6 7 7 7 7 8 8 9 9 10 10 11 18 21 24 26 30 39 41 40 34 35 36 38 47 53 55 67 79 83 87 90 94
4 3 3 4 6 8 8 8 8 9 10 11 11 12 12 17 23 26 25 22 24 30 30 28 29 30 31 38 53 64 70 80 83 87 86 88 94 95
5 3 4 6 7 8 9 10 11 12 13 14 14 17 20 22 20 16 23 25 25 30 28 26 32 42 53 62 64 72 79 83 87 93 93 94 93 87
5 4 5 6 8 11 10 11 12 14 15 17 21 24 22 22 24 25 23 23 22 24 34 43 49 57 61 71 79 72 70 66 63 62 60 56 55 56
5 4 5 7 11 11 12 13 14 15 18 23 24 24 25 25 20 18 23 27 37 46 51 52 59 63 62 56 51 47 44 43 42 41 36 32 27 21

GFSNE_250_rhum_009.txt.gz
RH
38 36 36 39 38 33 28 23 17 16 17 20 16 18 15 16 16 16 20 22 23 30 30 27 27 24 22 26 25 22 19 27 33 29 34 40 48 44
38 38 37 34 32 24 20 18 15 12 9 11 9 7 7 7 8 8 9 9 10 11 12 12 12 12 12 12 13 14 16 19 25 24 31 44 40 45
45 42 40 29 23 18 16 16 14 9 5 5 5 5 5 5 6 6 7 8 8 9 10 9 9 9 11 11 12 13 14 16 21 23 33 47 37 37
40 34 25 19 17 15 12 8 6 5 4 3 4 4 4 4 4 5 5 6 6 7 6 7 7 7 9 10 12 13 13 16 19 20 30 36 32 27
26 19 16 13 10 7 5 4 4 3 2 2 2 3 3 4 4 4 4 4 4 4 4 5 5 6 6 8 9 11 13 15 19 20 28 38 47 49
18 12 10 7 5 4 4 3 2 2 2 2 2 2 3 3 3 3 3 4 4 4 4 4 4 5 6 6 6 7 10 9 12 19 25 35 52 66
11 8 6 4 4 3 2 3 2 2 2 2 2 2 2 3 3 3 3 4 4 4 4 4 4 4 5 6 5 6 6 8 9 12 14 20 32 56
7 6 5 5 3 3 3 3 2 2 2 2 2 2 2 2 3 3 4 4 5 5 4 5 4 5 6 6 6 5 6 8 12 15 17 21 29 42
5 5 5 3 3 3 3 2 2 2 1 1 2 2 2 2 2 3 4 4 4 6 5 7 5 6 6 6 6 6 7 9 10 21 26 28 34 41
5 4 3 2 3 3 2 2 2 2 2 2 2 2 2 2 2 3 3 4 5 5 6 7 6 7 8 8 8 8 9 9 10 20 30 34 39 43
4 3 2 3 3 2 2 2 2 2 2 2 2 2 2 2 2 3 4 5 5 5 6 7 6 9 10 9 9 10 10 9 9 11 12 16 21 32
3 3 2 3 3 3 2 2 2 1 2 2 3 3 3 3 3 3 4 4 4 4 6 7 9 10 11 11 12 12 12 10 10 10 11 12 20 26
3 3 3 3 3 2 1 2 2 1 2 2 3 4 4 3 3 3 3 4 5 5 7 8 8 9 11 11 13 14 13 12 11 11 14 19 29 44
3 2 3 3 2 2 2 2 2 2 3 3 4 4 4 4 4 4 4 5 5 6 8 7 8 11 11 12 14 12 11 10 11 12 14 21 29 39
3 3 2 2 2 3 2 2 2 4 5 5 5 5 5 4 4 5 6 6 6 8 9 11 12 12 12 13 14 15 16 16 17 17 17 20 27 35
3 2 2 3 3 4 2 2 4 6 6 6 6 6 6 6 6 7 7 8 8 9 8 9 12 15 16 18 18 19 19 20 20 22 26 28 32 37
2 3 4 4 4 3 3 4 6 7 7 6 6 7 7 8 8 8 9 9 10 9 9 13 15 17 18 19 21 22 24 25 27 31 32 38 42 54
3 4 4 4 4 3 4 6 7 7 7 8 8 8 9 9 10 10 10 11 11 12 15 16 18 19 20 21 23 26 28 29 33 40 48 62 64 78
4 3 3 5 4 4 6 7 8 8 8 9 10 10 11 11 11 12 12 13 17 18 17 17 17 20 24 31 42 54 58 63 72 82 85 84 87 88
3 3 4 5 4 5 6 8 9 9 10 11 12 12 13 13 14 18 22 25 27 28 31 37 39 45 43 38 38 39 46 59 65 70 76 79 82 82
3 4 5 4 4 6 9 10 10 10 11 12 13 16 19 19 20 25 27 25 26 34 31 33 29 30 29 29 32 44 54 60 64 69 73 76 78 81
4 6 5 5 6 10 11 11 11 12 14 15 17 23 22 21 22 20 21 26 30 30 29 40 41 38 39 52 64 69 72 69 64 66 67 68 73 78
5 6 5 6 10 12 12 12 13 16 20 25 26 23 24 27 28 25 25 28 32 35 44 55 56 58 54 48 45 48 54 59 66 69 67 66 63 62

GFSNE_250_rhum_012.txt.gz
RH
51 48 44 40 36 37 33 29 21 16 16 24 20 21 14 10 8 8 8 8 7 8 8 8 8 9 10 10 11 13 17 39 25 30 38 55 77 76
49 45 36 37 34 31 31 32 28 19 15 17 12 6 6 5 5 5 5 5 4 5 4 4 5 5 6 7 9 10 10 14 15 30 18 30 32 30
39 37 38 36 32 33 33 27 22 20 14 10 4 5 4 4 4 3 3 3 3 3 3 3 3 4 4 5 6 7 9 10 12 14 15 19 19 20
41 40 36 30 33 31 26 26 16 9 6 4 4 3 3 3 2 3 3 2 2 3 3 3 3 3 4 4 4 5 7 8 9 11 12 14 14 16
40 34 32 34 31 29 24 13 6 5 4 3 2 2 2 2 2 2 3 3 2 3 3 2 2 2 3 3 4 4 5 6 8 8 9 10 13 15
39 39 38 34 25 16 11 6 4 5 3 2 2 2 2 2 2 2 2 2 3 3 3 2 2 2 3 3 3 4 4 5 6 7 8 11 15 17
45 41 29 16 10 7 4 4 5 3 2 2 2 2 2 2 1 2 1 2 2 2 2 2 2 2 3 3 4 4 4 5 6 8 10 11 14 18
34 19 11 7 6 4 5 5 4 3 2 2 2 2 2 2 2 2 2 2 2 2 1 2 2 3 3 3 4 5 5 5 6 6 7 9 11 19
15 8 7 5 4 5 5 4 4 3 2 2 2 2 2 1 1 2 2 2 2 2 2 3 2 3 3 4 5 5 6 6 6 7 8 8 9 16
8 6 5 4 4 4 4 4 3 3 2 2 2 2 1 1 1 2 2 2 2 2 2 2 3 3 4 4 5 6 7 8 7 8 8 8 8 11
7 5 4 4 4 3 4 4 3 2 2 2 2 2 2 2 2 2 3 3 3 2 3 3 3 4 4 4 6 7 8 10 11 10 9 10 12 14
5 4 4 4 3 4 4 3 2 2 3 3 2 2 2 3 3 3 4 3 3 3 4 4 4 5 5 6 7 8 11 12 12 12 11 10 10 14
5 5 4 4 4 4 3 2 3 4 4 2 2 3 4 4 4 4 4 4 4 4 5 4 5 5 6 6 7 10 10 13 14 12 12 12 11 11
5 4 4 4 3 3 3 3 4 4 3 3 4 4 5 5 5 5 5 5 5 5 4 5 5 5 6 7 9 10 12 14 14 13 13 13 11 11
5 4 4 4 3 3 3 3 4 4 3 5 6 6 6 5 5 5 5 5 5 6 6 6 6 6 7 8 10 12 12 13 14 14 13 12 12 11
6 5 4 3 3 3 3 4 4 4 5 6 6 6 6 6 6 6 6 6 7 7 7 8 9 10 12 14 13 12 12 12 13 12 12 12 12 13
5 4 3 3 2 3 4 4 4 5 7 7 7 7 7 7 8 8 8 9 9 10 10 10 9 9 11 12 14 15 15 16 16 14 13 13 14 16
4 4 3 2 3 4 5 4 5 7 8 8 8 9 9 9 9 9 10 11 11 11 11 10 12 14 16 17 19 20 20 20 20 20 20 21 20 20
4 4 3 3 4 5 4 5 8 9 9 10 10 11 11 11 10 11 11 11 11 12 15 16 16 17 18 19 20 21 23 24 26 27 25 26 31 30
4 3 3 4 6 5 6 8 10 10 11 12 12 12 12 13 13 14 15 18 22 24 22 20 18 17 20 24 25 25 32 30 30 32 34 39 38 38
3 3 5 6 5 6 9 11 12 12 14 14 14 17 19 20 20 20 26 27 27 35 39 42 45 50 44 40 39 44 46 52 59 64 68 72 73 73
3 4 6 6 7 10 12 13 13 15 17 20 22 23 22 21 22 23 23 25 26 29 29 34 35 47 40 31 30 32 31 37 44 51 53 52 50 53
4 7 6 9 11 14 13 13 15 16 19 20 22 24 27 27 27 27 28 36 39 41 43 33 38 41 45 45 39 38 43 46 48 52 53 54 61 65

GFSNE_250_rhum_015.txt.gz
RH
57 58 57 49 52 48 42 46 43 32 31 36 33 34 28 22 20 14 12 11 8 8 6 5 4 4 5 5 6 6 6 8 9 11 12 15 19 23
65 51 52 48 44 54 52 42 37 30 21 25 24 23 17 9 6 5 4 4 4 4 4 4 3 3 3 3 3 4 4 6 7 8 10 12 10 22
50 47 45 52 55 46 38 34 30 26 19 17 13 10 8 5 4 4 4 3 3 3 2 2 2 2 2 2 2 3 3 4 5 6 7 9 12 11
43 52 54 50 43 36 33 28 22 21 12 8 7 5 4 4 4 3 2 2 2 2 2 2 2 2 2 2 2 2 2 3 4 4 5 7 8 11
51 53 51 38 31 27 22 22 17 12 8 5 4 4 3 3 2 2 2 2 2 1 2 1 2 2 2 2 2 2 2 3 3 4 4 5 7 9
51 44 32 29 24 23 23 16 10 7 5 4 4 3 2 2 2 2 2 1 2 2 1 1 2 2 1 2 2 2 2 3 3 3 4 5 6 8
40 36 32 27 25 18 11 8 7 5 4 3 2 2 2 2 2 2 1 1 2 1 1 1 2 2 1 2 2 2 2 3 4 4 5 5 6 8
37 32 28 24 13 9 7 6 5 5 3 2 2 3 3 2 2 1 1 1 2 1 1 1 1 2 2 2 2 2 3 4 4 5 5 5 5 6
32 26 20 12 8 6 5 5 6 5 2 2 2 2 2 2 2 2 2 2 1 1 1 1 2 2 2 2 2 3 4 4 4 5 5 5 6 6
28 15 9 7 5 5 5 6 5 4 3 2 2 2 2 2 2 2 2 1 2 2 2 2 2 2 2 2 2 3 4 5 5 5 6 6 6 7
14 9 6 5 5 5 4 4 4 4 3 2 2 3 3 3 2 2 2 3 3 3 3 3 3 3 3 3 3 4 5 5 6 6 6 7 7 6
9 7 5 4 4 4 4 3 3 3 3 2 2 3 3 2 3 4 4 4 5 4 3 4 3 3 3 4 4 5 6 6 6 7 7 7 7 8
6 6 5 5 4 4 3 3 3 3 2 2 3 4 3 4 5 5 5 5 5 5 4 4 3 4 4 4 5 6 6 6 7 8 8 8 8 8
5 5 5 4 4 4 3 3 3 2 3 4 4 3 4 5 5 5 5 5 5 5 4 4 4 5 5 5 5 6 6 7 7 10 10 11 11 10
5 5 4 4 4 4 4 3 2 3 4 4 4 6 6 6 6 6 6 6 6 6 5 5 6 7 7 7 7 7 7 7 10 11 11 12 12 12
5 4 4 4 4 4 3 3 3 5 5 5 6 7 6 6 7 7 8 8 8 7 7 7 7 7 7 7 8 8 8 10 10 11 13 14 12 12
5 5 4 4 4 3 3 4 5 5 5 7 8 8 8 8 9 10 10 10 9 9 9 9 10 10 10 10 10 10 10 11 12 13 15 15 14 13
5 4 4 4 3 3 4 6 6 6 8 8 8 9 10 11 11 11 11 11 12 11 11 10 10 10 10 12 13 14 12 12 12 14 15 15 14 14
4 4 4 3 3 3 6 6 8 9 9 9 10 11 12 12 12 13 13 13 13 13 12 13 14 14 15 15 16 17 17 16 14 14 12 12 14 14
4 4 3 3 4 6 6 9 9 10 10 12 13 15 18 18 16 16 19 21 21 20 19 17 16 17 18 18 20 20 20 20 19 19 17 14 12 12
3 3 3 4 6 7 9 10 10 11 13 16 20 21 21 20 19 20 21 23 26 30 30 31 27 24 20 20 21 21 21 22 23 23 22 22 22 18
3 4 4 6 7 10 11 11 12 14 16 18 19 18 19 20 22 25 25 27 27 28 29 30 39 44 51 44 41 43 37 32 27 28 29 28 28 26
4 5 7 8 11 12 11 13 14 15 15 16 17 18 18 17 18 19 20 20 22 28 29 28 28 32 42 40 36 34 55 43 49 47 43 43 41 44

GFSNE_250_rhum_018.txt.gz
RH
97 94 91 81 64 65 56 46 31 25 35 46 41 43 38 30 26 24 25 22 14 9 7 6 5 4 4 4 4 4 4 4 5 6 7 9 15 16
90 80 84 72 58 51 38 35 33 30 27 36 31 26 26 28 26 15 8 6 5 4 3 3 3 3 3 3 3 3 3 3 3 4 4 5 6 7
83 71 63 55 45 34 33 34 32 30 24 22 22 24 20 11 8 5 4 3 3 3 2 2 2 2 2 2 2 3 2 3 3 3 4 4 5 6
59 60 49 34 32 33 32 30 23 23 20 15 12 8 6 5 4 4 4 4 3 2 2 2 2 2 2 2 2 2 2 2 2 2 3 3 4 5
54 40 30 30 31 28 24 23 20 16 11 7 6 5 4 3 4 4 4 3 2 2 2 2 2 2 1 1 2 2 1 1 2 2 3 4 4 4
35 31 32 29 24 22 23 16 13 8 7 5 4 4 3 4 3 2 3 2 2 2 2 2 2 1 1 1 1 2 2 2 2 2 2 3 3 4
37 31 25 23 23 19 14 8 7 6 5 4 4 3 4 3 2 2 2 2 2 1 2 2 2 2 2 1 1 1 1 1 2 2 2 3 3 4
27 25 26 24 20 12 7 6 6 5 4 3 3 3 3 2 2 2 2 2 2 1 3 2 2 1 1 1 1 1 1 1 2 2 2 3 3 4
26 25 25 15 9 6 6 6 5 4 3 3 3 2 2 2 2 2 2 2 2 2 2 2 1 2 1 1 1 1 1 1 2 2 2 3 3 4
29 21 12 8 6 6 5 5 5 4 4 3 3 2 2 2 2 2 2 2 2 2 2 2 3 2 2 2 2 2 2 2 2 2 2 3 4 4
18 11 7 7 6 5 4 4 4 4 3 3 3 2 2 2 2 2 2 2 2 3 4 4 4 4 3 3 3 3 3 3 3 3 3 4 4 4
10 8 7 5 5 5 4 4 4 3 3 3 2 2 2 3 3 3 4 4 4 5 5 5 5 5 4 4 3 3 3 3 3 3 3 3 3 4
7 6 5 5 5 4 4 4 3 3 3 3 2 3 3 3 4 5 5 5 5 5 6 6 5 5 4 4 4 3 3 3 3 4 4 4 4 4
5 5 5 4 4 4 4 3 3 3 3 2 3 4 3 4 6 6 6 6 6 6 6 6 5 5 4 5 4 4 4 4 4 5 5 5 5 5
4 4 4 4 4 4 3 3 3 3 3 4 4 4 6 7 7 7 7 7 7 7 7 7 6 5 5 5 5 6 6 6 6 6 6 6 6 7
5 4 4 4 4 4 3 3 3 3 4 4 5 7 8 8 8 8 8 8 8 9 9 8 7 7 7 7 7 7 7 8 8 8 8 8 8 8
4 5 4 4 3 3 3 3 3 4 5 7 8 9 10 10 10 10 9 9 10 10 11 10 9 10 9 8 8 8 8 8 9 9 10 11 12 11
4 4 4 3 3 3 3 4 5 5 7 9 10 11 10 11 11 12 11 11 11 11 11 11 11 10 10 11 12 11 9 10 11 12 13 14 14 14
4 4 3 3 3 3 4 5 6 8 10 11 11 11 13 14 14 14 16 14 13 14 13 12 14 13 12 12 14 13 15 14 13 14 16 18 18 18
4 3 3 4 4 5 6 7 9 11 11 12 14 18 18 18 17 16 20 23 26 22 19 16 16 18 20 18 18 17 16 16 15 15 16 18 19 18
3 3 4 4 5 6 8 10 12 12 13 14 16 18 19 20 19 20 22 23 21 29 26 21 18 17 19 20 21 21 20 20 19 17 16 17 17 17
4 5 5 6 7 10 12 12 14 15 15 16 17 18 19 19 22 23 24 24 26 26 30 27 34 30 24 26 24 24 22 22 23 22 18 16 16 16
5 6 6 8 11 13 14 16 16 19 22 24 25 27 31 32 31 29 23 21 20 22 30 32 28 33 34 36 42 43 34 27 25 27 25 22 17 15

GFSNE_250_rhum_021.txt.gz
RH
25 24 32 43 59 69 64 42 30 30 39 49 37 42 32 27 26 24 23 24 24 23 22 19 15 10 8 6 5 5 5 6 5 5 5 6 6 7
34 54 68 69 66 52 42 37 33 28 22 34 31 29 29 27 25 22 18 14 11 8 5 4 4 4 3 3 4 4 3 3 3 3 4 4 4 4
54 62 65 57 50 50 46 36 29 29 26 29 27 26 25 22 19 12 6 4 4 4 4 3 3 3 3 3 3 3 4 4 3 3 3 3 4 4
67 58 53 53 50 38 34 33 31 28 24 20 21 17 13 8 6 5 5 4 3 3 2 2 2 2 2 2 2 2 2 2 2 2 2 2 2 2
53 54 48 38 38 36 34 29 28 24 18 14 9 7 5 5 4 4 4 3 2 2 2 2 2 2 2 2 2 2 2 2 2 2 2 2 2 2
49 39 40 38 36 30 26 23 17 15 11 6 4 4 4 4 4 3 4 2 2 2 2 2 2 2 2 2 2 2 1 1 1 1 2 2 2 2
39 41 38 31 26 24 18 15 11 6 5 4 4 4 4 4 3 3 3 3 2 2 2 2 2 2 2 2 2 2 2 2 2 1 1 1 2 2
38 34 28 25 24 18 13 7 5 4 4 3 4 4 3 3 3 2 2 2 2 2 2 1 2 2 2 2 2 2 2 2 2 2 2 1 1 2
29 26 25 21 15 8 6 5 5 4 3 3 3 3 3 3 3 2 2 2 2 2 2 2 2 2 2 2 2 2 1 1 1 1 1 1 1 2
24 23 17 12 6 6 4 5 4 4 4 3 3 3 3 3 2 2 2 2 2 3 3 3 3 3 3 3 3 2 2 2 1 1 1 1 1 1
20 15 8 6 6 5 4 4 4 3 3 3 3 3 3 2 2 2 3 4 3 3 4 3 4 4 4 4 3 3 3 2 2 2 1 1 1 1
13 7 6 5 4 4 4 4 3 4 4 3 3 2 2 2 3 4 4 4 4 4 4 4 4 4 5 5 4 4 3 3 3 2 2 2 2 2
7 6 5 5 5 4 4 3 4 3 3 2 2 2 2 3 4 4 5 5 5 5 5 5 5 5 5 5 4 4 4 3 3 3 3 3 3 3
5 4 4 4 4 4 4 4 3 3 2 2 2 3 4 4 5 6 6 7 7 6 6 6 6 6 6 6 4 4 4 4 4 3 3 2 2 3
4 4 4 4 4 4 4 3 2 2 2 3 4 4 5 6 7 7 7 8 8 8 7 7 7 7 6 6 5 5 5 5 4 4 4 4 4 4
5 4 4 4 4 4 3 2 3 3 4 5 6 6 8 8 8 8 9 9 8 9 9 9 8 8 8 8 7 6 6 6 6 6 5 6 6 6
4 4 4 4 3 3 3 3 4 5 6 8 8 9 9 10 11 11 9 9 9 10 10 10 10 10 8 8 9 8 8 7 7 7 7 6 6 6
4 4 4 3 3 4 4 4 5 7 9 10 10 12 14 15 15 14 11 10 10 10 10 11 10 11 11 10 8 9 9 9 9 9 8 8 8 7
4 3 3 3 4 4 5 6 9 10 11 12 13 14 15 17 18 18 16 17 18 16 14 12 12 11 12 12 12 10 10 11 11 11 11 10 11 10
3 3 4 4 5 5 7 9 11 12 14 15 15 15 16 17 19 19 19 21 23 26 19 17 16 16 16 16 15 15 14 12 13 14 14 16 16 16
4 4 5 5 6 8 11 12 14 16 17 18 19 20 20 19 18 20 23 24 25 28 29 22 17 18 18 18 18 17 16 17 16 15 14 14 14 15
4 5 5 7 9 11 13 15 19 21 23 24 24 25 26 30 32 28 24 23 24 26 29 31 29 22 19 21 22 22 21 19 17 17 19 19 18 18
6 6 8 10 12 15 18 20 20 22 27 31 30 26 24 23 23 33 34 30 23 23 28 34 33 34 28 24 24 24 24 23 23 19 17 20 20 20

GFSNE_250_rhum_024.txt.gz
RH
17 19 19 21 27 26 26 28 27 28 41 51 36 34 28 29 30 30 27 23 21 19 18 19 19 19 17 16 15 15 15 12 11 11 12 12 12 14
21 24 29 29 32 34 36 36 36 26 21 34 38 38 38 34 25 18 16 15 15 15 12 9 7 6 5 5 5 5 4 4 4 4 4 5 5 5
28 30 30 36 37 36 39 33 26 25 24 38 39 41 33 26 22 18 13 9 7 6 4 3 3 4 4 4 4 3 3 3 3 3 3 3 3 3
34 35 34 35 39 33 28 28 32 33 24 18 24 20 17 15 13 8 6 5 4 3 3 3 3 3 3 3 3 2 2 2 2 2 2 2 2 2
34 33 38 35 31 32 34 32 28 23 20 15 13 11 8 6 5 5 4 4 3 2 2 2 2 2 2 2 2 2 2 2 2 2 2 2 2 2
37 40 33 32 35 32 27 25 22 17 13 10 6 4 4 4 3 3 4 3 3 2 2 2 2 2 2 2 2 2 2 2 2 2 2 2 2 2
40 35 36 33 27 24 21 16 13 8 5 4 4 3 3 3 3 3 3 3 3 2 3 2 2 2 2 2 2 1 1 1 1 1 1 1 1 2
37 37 32 28 24 22 16 9 6 4 3 3 3 3 4 3 3 3 3 3 2 2 3 2 2 2 2 2 2 2 2 2 1 1 1 1 1 1
35 31 28 23 18 10 6 6 5 3 3 3 3 3 3 3 3 3 2 2 2 2 2 1 3 2 2 2 2 2 2 2 2 2 1 2 2 2
31 26 20 11 6 6 5 4 4 3 4 3 3 3 3 3 3 2 2 2 2 2 3 2 3 3 3 4 3 3 3 3 2 2 2 1 1 1
27 18 7 6 5 4 4 4 4 4 3 3 3 3 3 2 2 2 2 2 3 3 3 4 4 4 5 4 4 4 4 4 3 3 2 2 1 1
13 8 6 6 5 4 4 4 4 3 3 3 3 2 2 2 3 3 3 4 4 4 5 5 5 5 5 4 4 4 4 4 3 3 2 2 2 1
9 8 6 5 4 4 4 4 4 3 3 2 2 3 3 3 4 4 6 6 6 7 6 6 6 5 5 4 4 4 4 4 3 3 3 2 2 2
8 6 5 5 5 4 4 4 3 3 3 3 3 3 4 5 6 6 7 7 8 7 7 7 7 7 6 5 5 5 4 4 3 3 3 3 2 2
6 5 5 5 4 4 4 3 3 3 4 4 4 5 6 6 7 8 8 8 8 8 8 8 8 7 7 6 5 6 5 4 4 4 3 3 3 3
5 5 5 5 4 4 3 3 4 4 5 5 7 8 8 9 11 10 11 9 9 10 10 10 10 9 8 7 6 6 6 5 4 4 4 4 4 4
6 5 5 4 4 4 4 5 5 6 8 9 9 9 11 12 13 13 14 12 10 11 10 10 11 11 10 8 8 8 6 6 6 6 5 5 5 5
5 5 4 4 4 4 5 6 7 9 10 11 11 12 13 14 14 15 15 15 16 16 14 12 12 12 11 10 9 9 8 7 7 7 6 6 6 6
5 4 4 4 5 6 6 8 11 12 14 15 15 16 16 16 15 15 17 17 19 23 20 16 14 13 11 13 11 10 10 8 8 8 8 7 6 6
5 4 4 6 6 7 10 12 13 16 19 22 23 25 25 25 23 19 16 19 21 22 27 21 16 16 14 15 16 13 12 10 10 10 9 9 9 8
5 5 6 6 7 10 14 16 17 20 22 25 26 26 26 26 24 23 26 20 19 21 23 27 23 18 18 19 19 17 15 14 12 11 12 11 10 9
5 7 7 8 12 17 18 20 21 22 26 25 24 25 27 26 24 24 20 25 25 18 22 27 37 24 20 20 23 19 18 18 14 15 16 17 18 14
7 7 9 13 17 19 20 22 24 25 22 20 17 16 19 21 21 19 19 18 27 25 18 25 33 44 25 22 22 24 19 19 20 18 16 16 17 18

GFSNE_250_rhum_027.txt.gz
RH
22 19 17 17 18 17 17 18 18 20 30 35 35 34 29 28 28 25 23 20 20 19 17 15 14 14 13 13 13 12 12 12 12 13 14 17 19 21
19 18 18 19 24 25 25 28 30 28 24 30 28 26 24 20 18 15 13 12 12 11 10 10 10 9 8 9 10 11 11 10 9 8 7 8 8 10
18 19 24 28 31 28 30 35 31 25 20 25 24 24 20 17 14 12 10 9 7 7 6 5 4 4 4 4 4 4 5 4 4 4 4 4 4 4
21 26 31 27 30 35 34 28 24 25 20 15 18 17 13 14 10 7 5 4 3 3 3 3 3 3 3 3 3 2 3 3 3 3 3 3 3 3
30 31 28 32 36 31 28 29 27 25 20 14 10 8 6 5 5 4 4 3 2 2 2 2 2 3 2 2 2 2 2 2 2 2 2 2 2 2
28 30 38 34 31 32 31 26 23 18 12 7 5 5 4 4 3 3 3 2 2 2 2 2 2 2 2 2 3 2 2 2 2 2 2 2 2 2
39 41 39 40 36 30 23 20 15 8 4 4 4 4 3 3 3 3 3 3 2 2 3 2 2 2 2 2 2 2 2 2 2 2 2 2 2 2
42 45 46 38 30 24 21 12 6 4 3 3 3 3 3 3 3 2 3 2 3 3 2 2 2 2 2 2 2 2 2 1 2 2 1 1 1 1
49 47 37 30 23 16 9 7 5 4 4 3 4 3 3 3 3 2 2 2 2 2 2 1 2 2 2 2 2 2 2 2 2 2 2 2 2 2
48 37 28 22 14 7 6 6 5 4 4 4 4 3 3 3 2 2 2 2 2 2 2 2 2 2 3 3 2 3 3 3 2 2 2 2 2 2
38 30 19 10 8 7 6 5 5 4 4 4 3 3 2 2 3 2 2 2 2 3 3 4 4 4 4 3 4 4 4 4 3 3 3 3 3 2
32 13 9 9 8 6 5 5 5 4 4 3 2 3 3 4 4 4 4 4 5 4 5 5 4 5 6 5 5 5 4 4 5 5 4 4 3 3
12 10 10 9 6 6 5 5 4 4 3 3 3 4 4 4 4 6 6 6 6 7 8 7 6 7 6 6 6 5 5 5 5 4 4 4 3 3
11 9 9 6 6 6 5 4 4 3 3 4 4 4 4 6 8 8 8 10 10 8 7 8 8 8 8 7 7 6 6 5 5 4 4 3 3 3
11 8 6 6 6 5 4 4 4 4 5 5 4 6 8 9 10 11 12 14 12 9 9 9 9 9 9 8 8 7 6 6 5 5 4 3 3 3
9 6 6 6 5 4 4 4 5 6 6 7 9 10 11 12 12 12 13 14 14 13 12 11 10 10 10 10 8 8 7 6 6 5 4 3 3 2
6 6 6 5 4 4 5 6 7 7 9 11 12 13 14 14 14 14 15 16 15 15 19 15 12 11 11 11 10 8 8 7 6 5 5 4 3 3
6 6 6 5 4 5 7 7 9 11 12 14 15 16 16 17 19 22 21 17 18 17 21 21 15 13 12 11 11 8 9 8 7 6 6 5 4 4
6 6 5 4 5 7 7 10 12 16 16 18 18 20 22 21 19 19 22 27 18 18 21 23 16 16 15 12 13 9 10 9 8 7 7 6 6 4
6 5 5 6 8 8 11 15 19 19 20 21 22 21 20 18 20 21 20 23 28 19 19 26 21 17 18 14 16 12 11 10 9 8 8 7 7 6
5 5 6 8 8 12 17 18 18 19 18 17 18 19 19 19 16 20 19 20 26 27 17 23 32 22 19 18 17 16 11 12 11 10 8 8 7 7
5 6 8 8 13 17 18 19 19 17 15 13 11 10 11 13 16 18 20 20 19 27 23 21 30 28 20 22 18 19 15 15 14 13 11 10 8 7
6 8 8 13 17 19 20 17 14 11 10 9 10 11 13 12 14 18 17 16 16 20 28 20 26 37 24 22 21 20 18 17 17 18 18 12 11 9

GFSNE_250_rhum_030.txt.gz
RH
32 29 26 27 24 22 23 18 15 16 28 28 32 37 33 27 25 22 20 19 18 17 18 18 15 12 11 10 10 11 11 11 12 13 14 16 17 18
31 27 25 24 25 24 19 20 24 24 26 34 28 22 18 16 15 15 14 12 11 9 8 7 6 6 6 6 6 6 7 7 9 9 10 11 11 12
27 27 26 28 23 20 23 29 36 33 25 25 20 19 17 16 15 10 6 4 4 3 3 3 3 3 3 3 3 3 3 3 3 3 4 4 4 5
28 28 30 21 22 27 32 42 33 26 19 16 21 20 16 12 7 5 4 3 2 2 2 2 2 2 2 2 2 2 2 2 2 2 2 2 2 3
31 25 20 26 29 38 38 31 27 25 20 17 17 12 8 6 5 4 3 2 2 2 3 2 2 2 2 2 2 2 2 2 2 2 2 2 2 2
22 22 29 33 42 37 32 30 24 20 20 14 8 6 5 5 4 3 3 2 2 3 2 2 2 2 2 2 2 2 2 2 2 2 2 2 2 2
27 30 38 41 39 39 30 23 19 19 10 7 6 5 4 4 4 3 3 3 2 3 2 2 2 2 2 2 2 2 2 2 2 2 2 2 2 2
31 44 42 48 45 35 26 21 18 8 6 5 5 4 4 4 3 3 3 2 2 2 2 2 2 2 2 2 2 2 2 2 2 2 2 2 2 2
40 45 53 44 34 23 20 15 9 7 6 5 5 5 4 4 3 2 2 2 3 3 3 2 2 2 2 3 2 2 2 2 2 2 2 2 2 2
53 50 46 36 24 19 12 10 8 7 6 5 5 4 4 3 3 3 3 2 2 4 4 3 3 2 3 4 4 4 3 3 3 3 3 3 3 3
53 47 36 28 14 11 9 7 6 6 6 5 4 4 3 4 4 4 3 3 2 4 5 5 5 5 5 5 4 5 5 5 5 4 4 3 3 3
50 38 23 13 10 10 7 7 6 6 6 4 4 4 4 5 5 6 7 6 5 6 6 8 8 5 6 6 6 6 5 5 5 4 4 4 4 3
41 21 13 10 10 8 8 6 6 6 5 4 4 4 5 5 7 8 9 10 8 9 11 9 7 7 6 7 7 7 7 6 5 5 4 4 4 4
22 13 10 10 9 7 6 6 6 5 4 5 5 4 6 8 10 11 12 12 11 12 12 10 9 9 8 8 9 9 8 6 6 5 5 4 3 3
12 10 10 8 7 6 7 6 5 4 5 5 5 7 9 10 12 14 16 14 13 12 14 14 13 12 10 9 10 10 8 7 6 6 5 4 3 3
13 11 8 6 6 7 6 5 5 6 5 6 9 11 12 14 15 17 18 18 18 15 15 15 17 13 11 11 13 11 9 8 7 7 5 4 4 3
9 7 6 6 6 6 5 6 6 6 7 12 13 15 16 17 19 18 18 21 18 19 17 18 18 14 13 14 14 11 10 9 8 7 5 5 4 3
6 5 6 6 6 5 5 6 7 10 14 15 16 14 14 14 14 17 18 21 23 21 21 19 19 15 16 17 14 12 10 10 9 7 5 5 4 3
6 6 6 5 5 6 6 7 11 14 15 14 13 14 15 16 15 15 18 19 26 19 24 20 22 17 17 18 15 13 10 10 9 7 7 6 5 3
7 6 5 5 6 7 8 13 15 16 16 15 12 10 11 10 11 13 14 17 25 23 23 21 23 21 19 19 18 15 12 10 10 8 8 7 6 4
5 4 5 6 6 10 16 17 17 14 10 8 7 7 9 10 12 14 16 17 23 23 19 23 23 25 19 21 20 16 13 12 10 9 8 8 7 5
4 5 6 6 10 16 18 19 13 10 8 8 6 7 9 10 11 12 13 18 22 22 17 24 22 27 20 23 21 18 16 14 11 10 9 9 8 7
6 7 6 12 15 16 15 10 9 8 8 8 8 9 8 8 8 8 10 11 17 18 17 25 20 30 22 24 21 18 18 17 14 10 10 9 9 8

GFSNE_250_rhum_033.txt.gz
RH
54 50 44 38 33 28 25 24 23 23 28 24 20 22 22 28 32 26 22 20 23 24 22 19 16 13 11 10 9 9 8 8 7 8 8 8 8 9
53 48 42 33 29 25 25 25 26 26 20 22 27 28 25 22 18 17 21 21 17 11 8 6 5 5 5 4 4 3 3 3 3 3 4 5 6 6
54 43 36 30 27 27 27 28 23 19 23 38 34 28 21 16 19 21 13 8 5 4 4 4 4 3 3 3 3 3 2 2 2 2 2 3 3 3
48 40 32 30 29 29 26 21 23 30 32 28 35 24 20 26 20 8 6 4 4 4 4 3 2 3 3 2 2 2 2 2 2 2 2 2 2 2
43 36 33 32 30 23 23 29 39 39 33 24 20 26 27 13 7 6 5 4 4 4 3 3 2 2 2 2 2 2 2 2 2 2 2 2 2 2
38 35 33 26 24 29 37 39 38 39 24 20 21 22 10 9 7 6 4 4 4 3 3 2 2 2 2 2 2 2 2 2 2 2 2 2 2 2
38 31 25 28 35 40 39 41 30 25 20 20 18 8 8 7 5 4 4 3 3 3 2 2 2 2 2 2 2 2 2 2 1 2 2 2 2 2
30 28 34 41 40 45 36 38 27 19 19 9 7 7 6 5 4 4 4 3 3 3 3 2 3 2 2 2 2 2 2 2 2 2 2 2 1 2
32 38 42 45 39 42 41 30 23 15 8 7 6 6 5 5 5 4 3 3 4 4 4 3 3 3 3 3 4 4 3 3 3 3 2 2 2 2
43 46 42 43 42 34 26 20 14 8 7 7 6 5 5 5 4 4 4 4 3 4 5 7 6 6 5 5 6 6 5 5 4 4 4 3 3 3
46 44 46 43 33 22 16 11 9 7 6 5 5 6 5 4 4 5 5 5 4 6 6 8 9 8 10 8 7 6 6 6 5 5 5 4 4 4
51 48 40 29 21 16 10 9 8 6 5 5 5 5 4 5 6 7 8 8 8 8 9 9 9 9 10 9 9 8 7 6 6 6 5 5 5 4
47 37 28 20 13 10 9 7 5 5 6 6 4 4 5 6 6 10 11 13 11 11 15 12 10 11 10 12 11 9 8 8 8 6 6 5 4 4
36 27 18 11 10 9 6 5 5 6 6 4 4 6 5 7 9 14 16 18 18 16 16 15 14 12 12 16 11 9 9 8 7 6 5 5 4 4
30 17 10 10 8 5 5 6 6 5 4 5 6 6 9 12 13 14 17 18 22 18 16 17 17 14 16 16 11 10 10 8 6 6 5 4 4 3
17 11 11 8 5 5 6 5 4 4 5 5 5 8 11 12 13 13 13 17 19 22 17 16 18 16 19 14 11 11 10 8 7 6 5 4 4 3
10 9 7 4 6 6 5 4 5 6 6 8 11 10 10 11 13 14 13 14 18 22 22 17 19 17 18 14 13 12 10 8 7 6 5 5 4 3
9 6 5 6 6 4 4 5 6 7 10 11 10 9 9 8 9 11 13 12 11 18 20 18 19 17 19 16 14 13 10 9 8 7 6 5 4 3
6 5 6 5 4 5 6 6 8 10 10 9 8 8 8 8 8 9 11 11 11 14 17 17 18 17 21 18 16 13 10 10 8 8 6 5 4 3
5 6 5 5 6 6 8 11 10 10 9 8 8 7 7 7 7 10 12 14 14 14 15 15 18 17 21 19 17 14 12 10 9 8 6 5 4 3
6 5 5 6 6 10 12 11 10 9 8 6 6 6 7 9 9 10 11 13 13 15 14 13 18 23 21 19 18 14 13 11 9 8 7 6 4 4
5 6 7 6 10 12 11 9 8 7 6 6 6 6 7 8 8 8 9 9 10 15 15 13 17 26 20 19 19 16 16 12 9 8 8 7 5 4
6 8 7 10 12 11 9 8 6 6 6 6 6 6 7 7 7 7 7 7 9 13 14 14 17 26 20 20 19 18 18 12 10 8 9 8 6 5

GFSNE_250_rhum_036.txt.gz
RH
59 59 60 61 61 61 62 62 51 37 39 34 29 28 26 22 19 18 19 21 27 24 27 33 30 23 18 14 9 6 6 6 6 5 5 5 5 6
60 61 62 62 62 62 59 52 45 36 34 32 27 20 17 20 23 24 26 25 25 27 25 17 13 8 6 5 5 4 4 4 4 4 4 4 3 3
64 64 64 64 62 59 55 49 44 40 30 29 23 24 26 26 22 21 24 25 20 14 9 6 6 4 4 5 4 4 3 3 3 3 3 3 3 2
66 66 66 64 61 58 51 48 37 28 26 24 32 38 33 28 24 28 23 14 7 5 5 6 5 4 4 4 4 4 3 3 3 2 2 2 2 2
68 68 66 63 58 51 44 34 31 26 27 32 39 35 32 28 28 21 11 6 6 5 5 4 4 4 4 4 3 3 3 3 2 2 2 2 2 2
72 70 62 56 48 44 36 29 28 37 44 36 32 29 29 28 16 8 7 6 5 4 4 4 4 4 3 3 3 3 2 2 2 2 2 2 2 2
66 60 56 49 44 35 27 36 45 38 34 28 24 29 25 13 7 7 5 4 4 4 5 3 4 3 3 3 3 3 3 2 2 2 2 2 2 2
64 56 52 41 38 33 43 40 42 36 25 22 26 17 9 7 6 4 4 4 4 4 4 2 4 3 4 4 3 4 3 3 3 3 2 2 2 2
60 52 45 37 36 45 40 46 36 28 26 22 14 7 7 5 4 5 5 4 4 4 4 3 5 4 5 5 6 5 5 5 5 4 4 3 3 2
52 47 34 38 42 43 47 36 33 29 22 12 7 6 4 4 5 5 4 4 4 4 6 5 7 6 8 7 7 7 6 6 6 5 4 4 4 3
43 36 41 43 53 47 34 32 28 19 10 7 5 4 5 5 4 4 4 5 5 4 8 9 10 8 12 9 10 9 9 8 7 6 6 5 5 4
36 49 47 52 42 32 30 26 16 8 6 4 4 5 5 4 4 5 6 5 7 8 11 10 12 13 12 13 12 11 11 10 9 8 7 7 6 6
53 51 51 41 32 30 25 12 8 6 4 4 5 4 4 4 5 5 8 14 15 14 13 13 12 14 13 10 15 12 12 11 10 10 9 8 7 6
55 49 41 32 31 23 11 8 6 4 5 5 4 4 4 5 6 9 13 13 16 19 13 15 16 19 18 14 16 11 14 14 9 9 10 8 7 6
50 43 35 31 18 10 7 6 4 5 4 4 4 4 5 6 9 10 10 12 13 20 20 18 19 20 19 15 14 17 14 10 13 11 9 7 6 6
43 35 28 14 10 7 5 5 6 4 4 5 4 5 8 8 8 8 7 8 9 12 20 16 20 19 18 19 17 14 16 12 9 10 8 7 6 5
33 21 12 9 6 5 5 6 4 5 5 6 9 9 8 8 7 7 7 7 8 7 10 13 14 16 17 17 20 17 15 13 11 9 7 6 5 4
15 10 8 6 4 5 5 4 5 5 8 9 8 7 7 6 6 6 7 8 7 8 8 10 11 12 15 17 16 17 15 11 10 9 7 6 5 4
10 7 6 4 6 5 5 5 6 9 8 7 6 6 5 5 5 6 7 9 9 8 10 12 12 14 15 17 20 18 16 12 10 7 7 7 5 3
8 6 5 6 5 5 5 9 11 9 7 6 5 5 5 5 6 8 8 9 9 9 12 13 14 13 16 18 19 18 13 11 9 8 8 6 4 3
6 6 7 5 6 6 10 12 9 7 5 5 5 5 6 6 8 8 8 8 8 9 11 14 14 14 18 20 21 16 13 10 10 9 7 5 4 4
6 7 6 6 6 11 11 9 8 6 5 5 5 6 7 7 7 7 7 6 7 8 11 16 14 16 22 22 20 16 13 10 10 9 7 5 6 4
8 7 7 7 12 12 8 8 8 6 6 6 7 6 6 6 6 6 6 6 6 8 12 16 14 19 22 22 19 18 12 11 10 8 7 6 6 5

GFSNE_250_rhum_039.txt.gz
RH
70 77 78 75 68 62 60 60 60 65 68 66 60 52 48 45 48 37 29 23 20 20 21 26 25 35 37 33 28 23 17 13 11 9 7 6 5 5
65 72 77 78 78 75 71 68 68 60 57 53 52 45 42 37 30 23 19 21 26 22 26 29 29 28 24 17 11 7 5 5 4 4 4 4 4 4
57 66 79 84 83 78 72 62 61 50 43 54 45 42 29 23 19 19 23 22 24 25 28 24 19 12 7 6 5 5 5 4 4 4 3 3 3 3
54 56 67 75 69 64 60 59 50 48 42 40 40 32 27 19 22 20 22 25 26 26 18 9 7 5 5 4 4 4 4 4 4 3 3 3 3 3
54 55 61 58 58 57 55 49 45 42 40 32 32 25 22 25 24 25 23 27 23 11 6 5 6 4 4 4 4 4 4 4 3 3 3 3 2 2
55 61 59 58 55 49 45 43 40 40 36 30 22 24 27 26 23 25 28 22 9 5 5 4 4 4 4 5 4 4 3 3 3 3 2 2 2 2
62 61 55 51 49 46 44 41 39 36 30 24 26 25 24 23 27 26 16 6 6 3 4 4 4 4 4 4 4 4 4 4 3 3 3 2 2 2
65 55 53 51 47 45 44 40 35 29 28 24 22 20 25 25 24 12 6 5 4 3 5 4 3 3 4 4 4 4 4 4 5 5 5 4 3 3
57 60 49 49 44 44 36 36 32 32 27 21 20 25 26 20 8 6 4 4 4 3 4 3 4 4 4 5 5 5 6 7 7 7 7 6 5 5
60 51 49 48 45 39 33 33 38 34 24 24 26 24 12 6 5 4 4 4 3 3 5 5 4 5 5 10 9 10 10 10 10 9 8 8 8 7
60 54 55 41 38 36 36 44 33 24 26 27 18 8 6 4 4 5 4 4 4 3 4 7 8 13 8 14 12 12 12 12 11 11 9 8 8 7
61 56 42 38 35 46 47 30 25 28 25 16 7 5 4 4 4 4 5 5 5 5 6 10 9 13 9 12 13 14 12 13 13 11 10 10 9 9
49 43 37 41 54 41 28 24 29 26 14 7 4 4 5 4 4 5 6 8 11 12 12 12 9 11 15 9 13 15 12 11 14 13 13 12 10 8
40 39 57 50 37 29 28 30 23 10 7 4 4 5 4 4 5 7 8 9 10 15 14 11 10 9 10 10 9 14 15 14 19 16 11 9 9 10
57 57 46 39 36 32 29 16 8 6 4 5 5 4 4 5 7 7 6 7 7 8 10 10 8 7 9 9 8 11 12 11 16 14 14 12 10 8
60 55 42 36 30 23 11 8 5 5 6 5 4 4 6 7 6 6 5 5 5 5 8 9 6 6 7 10 10 9 13 15 12 12 12 11 9 8
53 41 34 28 16 9 6 5 5 6 5 5 5 7 7 6 5 5 4 5 5 5 6 9 7 7 9 9 10 11 12 14 14 14 12 9 9 7
36 30 22 11 8 6 4 5 6 6 6 7 8 7 6 5 4 5 5 6 5 6 7 7 9 11 11 10 12 15 18 17 17 13 10 9 8 6
24 12 10 7 5 4 5 5 6 6 9 8 7 5 4 4 5 5 6 6 6 6 8 9 10 12 11 11 12 14 17 17 14 12 10 8 6 6
10 9 6 5 4 6 5 6 7 9 8 6 5 4 4 4 5 6 6 6 6 7 7 8 11 13 12 12 15 17 17 14 14 12 9 7 6 5
8 6 5 5 6 6 6 8 10 7 6 5 5 5 5 6 6 5 5 6 6 7 7 8 11 13 12 16 18 18 16 15 11 9 8 6 5 5
6 5 6 7 7 6 10 10 7 6 5 5 5 6 5 5 5 4 5 5 6 6 7 9 14 12 15 19 19 17 17 11 10 8 7 6 7 6
6 7 7 8 7 11 11 8 7 6 6 6 6 6 5 4 5 5 5 6 6 6 8 13 11 16 20 19 18 19 12 12 10 8 7 8 8 7

GFSNE_250_rhum_042.txt.gz
RH
85 78 71 80 64 59 56 48 42 45 65 76 68 71 65 56 52 48 48 41 39 36 32 25 18 14 20 28 24 24 24 24 25 24 21 16 12 10
95 86 91 80 72 68 60 51 44 36 36 46 51 50 45 42 45 43 38 33 31 27 20 14 18 25 22 20 22 24 23 17 11 7 5 4 5 5
100 100 92 84 82 72 62 54 47 42 36 39 36 34 33 39 38 34 29 24 20 15 17 23 18 18 20 22 18 12 7 5 4 4 4 3 3 3
94 88 73 70 71 68 61 55 46 42 30 31 32 38 39 33 27 24 21 15 14 24 19 18 19 22 15 9 6 5 4 4 3 3 3 3 3 3
73 70 66 64 58 58 56 48 41 35 34 27 33 30 28 28 22 16 12 19 22 20 19 22 15 8 5 4 4 3 3 3 4 3 3 3 3 3
67 67 64 66 59 59 53 40 37 34 32 29 25 27 22 20 13 13 20 22 22 19 14 10 6 4 3 3 4 4 4 3 3 3 3 3 3 2
63 62 61 62 62 58 51 49 43 35 33 31 28 24 17 13 17 21 21 22 19 10 7 5 4 3 4 4 3 3 3 3 3 3 3 3 3 3
60 59 61 65 64 59 52 45 37 31 28 26 21 16 15 19 20 24 26 20 14 4 4 4 4 4 3 3 4 3 4 4 4 4 4 4 4 4
63 65 66 67 61 58 51 40 37 40 28 19 14 18 20 22 26 27 19 11 5 3 4 5 3 3 4 4 4 4 4 5 6 7 9 8 7 6
62 66 70 74 68 53 46 48 38 25 22 20 22 22 26 28 23 17 8 6 4 3 4 6 4 4 4 5 8 7 9 10 10 11 12 12 11 10
74 79 75 61 55 43 40 35 30 25 24 24 25 27 25 17 10 7 5 4 5 4 3 7 6 8 7 6 11 11 10 9 10 10 12 12 11 11
80 68 59 52 39 32 30 26 25 30 28 28 30 21 14 7 5 4 4 5 5 5 5 9 7 7 8 5 8 12 9 10 11 12 12 12 10 10
67 60 47 40 37 32 33 34 30 27 30 29 22 10 6 4 4 4 4 4 6 8 8 8 6 5 6 6 4 9 10 8 9 10 13 11 11 12
60 50 43 37 42 48 37 27 29 31 24 15 7 5 4 4 4 4 4 6 7 8 7 6 5 4 4 4 5 6 9 8 8 9 12 11 12 14
46 42 48 63 54 35 31 33 27 18 8 6 4 4 5 4 4 5 5 5 5 5 5 5 4 4 4 5 4 7 7 8 9 11 11 12 13 12
63 65 59 52 38 36 32 23 11 7 5 4 5 5 4 4 5 5 5 4 4 4 6 5 5 4 5 7 6 7 7 8 12 12 15 16 16 12
66 62 55 41 35 28 15 7 6 4 5 5 4 5 6 6 5 4 4 4 4 4 4 7 6 6 8 7 8 8 9 9 10 13 14 12 10 8
59 51 38 30 22 10 7 4 4 6 5 5 6 6 5 5 4 4 4 4 5 5 6 6 7 8 8 10 10 9 9 13 16 14 11 10 10 8
41 30 24 14 9 7 5 5 6 5 6 7 5 4 4 4 4 5 5 5 6 6 6 7 7 8 10 10 11 13 15 14 13 12 12 10 9 7
25 15 10 9 6 5 6 7 6 7 7 6 5 5 5 5 5 5 5 5 5 6 6 7 7 9 11 10 13 16 16 15 14 11 10 10 9 6
10 9 8 6 5 7 8 7 10 8 7 6 5 6 5 5 4 4 4 5 5 6 6 7 8 12 12 15 16 15 14 12 12 12 10 8 6 6
7 7 6 6 8 8 8 12 8 7 7 6 6 6 5 4 4 4 4 5 5 5 6 9 12 12 18 19 18 16 13 12 11 9 8 8 7 7
6 6 7 8 8 10 13 9 8 8 7 6 6 5 5 5 5 5 6 6 5 7 11 11 15 20 20 18 16 13 13 11 10 9 9 8 8 9

GFSNE_250_rhum_045.txt.gz
RH
55 56 63 67 76 71 73 84 77 82 100 100 97 85 69 62 51 47 46 41 34 33 31 27 25 22 21 23 26 25 20 16 20 22 21 19 17 16
67 84 88 88 88 91 89 82 76 78 83 90 93 80 74 70 67 60 49 37 33 29 24 24 19 19 20 23 20 16 19 20 18 18 18 17 14 12
86 88 94 93 90 89 87 82 75 70 67 86 68 53 50 48 45 44 37 32 31 25 21 17 19 19 21 17 19 21 20 19 15 11 8 6 5 4
71 81 88 86 89 87 80 69 63 63 56 52 50 45 44 40 34 31 31 26 23 22 16 17 18 18 19 21 19 19 13 8 5 4 4 4 3 3
73 70 69 74 73 78 75 65 56 50 45 42 45 41 41 39 32 29 28 23 18 16 15 16 18 21 19 17 12 7 5 4 3 3 3 2 3 3
74 76 76 68 65 67 66 59 52 46 40 37 35 34 32 34 28 24 24 20 19 17 17 22 22 20 16 7 5 4 3 3 3 3 3 3 2 2
84 82 77 63 60 61 60 55 50 47 45 44 43 47 38 31 23 24 22 21 18 21 23 22 18 10 6 5 4 3 4 3 3 3 3 3 3 3
85 78 61 60 61 58 55 52 51 52 46 45 38 32 29 24 21 17 16 24 28 23 21 14 6 6 4 3 4 4 4 3 4 4 3 3 3 3
72 70 82 81 82 83 78 74 66 61 36 32 32 26 19 16 16 24 26 26 24 14 8 7 4 4 3 4 4 5 5 5 6 7 6 6 7 7
93 95 98 99 100 88 74 72 58 48 36 31 24 18 18 25 26 28 24 16 10 6 4 4 3 4 4 3 4 7 10 8 7 8 9 8 8 8
97 98 94 83 73 62 52 52 46 37 30 21 22 27 28 28 24 17 11 6 5 3 3 5 4 4 4 3 4 7 10 11 8 8 9 9 9 9
88 85 79 76 68 57 41 32 32 32 36 36 31 28 23 18 10 6 4 4 3 5 4 5 4 6 7 5 5 5 7 8 7 6 8 8 8 8
86 80 71 61 47 36 41 50 51 44 37 33 30 23 16 8 5 4 3 4 4 4 5 7 6 6 6 5 4 4 8 6 5 4 6 7 7 8
78 67 58 52 61 68 65 58 43 34 31 26 20 11 7 4 4 4 4 4 4 6 6 4 4 4 4 4 4 4 7 5 5 5 6 6 7 9
65 66 76 80 70 66 54 40 32 28 21 14 8 6 4 4 4 5 5 5 4 4 4 4 4 4 4 4 4 5 5 6 5 5 7 6 7 9
73 72 70 66 54 41 32 29 24 17 9 7 5 4 5 4 5 5 5 4 3 3 5 5 5 5 5 6 6 6 6 7 6 6 6 7 10 10
74 63 54 46 38 31 25 18 10 8 6 4 5 5 6 5 4 4 4 4 4 4 5 6 5 6 7 7 7 8 7 8 9 8 7 8 14 13
47 41 36 30 24 17 11 8 6 5 5 6 6 6 5 4 4 4 4 4 4 4 5 5 6 6 7 7 8 8 9 9 8 11 15 16 17 14
33 27 20 15 12 9 6 6 5 6 6 8 6 6 5 5 4 4 4 4 4 5 5 6 6 7 7 8 10 9 10 15 18 18 14 11 10 9
16 13 12 8 7 6 6 7 7 8 9 7 7 6 6 5 4 4 4 4 5 5 5 6 6 7 9 11 11 16 15 14 12 10 9 9 8 7
9 7 6 6 6 8 8 8 10 10 8 8 8 7 7 5 4 5 5 5 6 6 6 7 9 11 12 16 18 17 15 12 11 10 8 7 6 6
6 6 6 8 9 9 8 12 10 9 9 9 8 8 7 6 6 7 6 6 6 8 10 11 14 18 18 18 16 12 11 10 9 8 8 8 8 8
6 8 9 10 9 10 14 10 9 10 10 10 10 8 8 9 8 9 10 10 12 13 16 19 19 19 19 15 12 12 11 9 9 9 8 8 8 7

GFSNE_250_rhum_048.txt.gz
RH
87 70 69 72 70 54 48 50 57 60 86 100 94 87 76 71 69 70 72 70 68 63 57 50 46 38 32 30 27 25 25 25 23 22 19 18 15 15
77 72 86 80 67 59 59 56 55 62 73 89 97 94 90 89 84 78 73 62 57 52 44 41 36 30 28 28 27 25 23 22 19 17 16 14 15 15
76 92 79 72 67 55 58 64 67 69 71 69 66 74 84 85 78 71 64 53 46 40 35 33 30 30 29 27 26 21 20 19 16 15 15 15 15 18
82 78 69 69 63 65 65 74 71 69 66 66 59 58 63 67 65 62 55 50 42 36 33 32 31 29 27 24 21 20 18 17 16 16 16 18 17 14
82 77 68 69 68 75 80 76 74 73 67 55 52 53 56 59 54 49 47 44 38 32 28 28 25 24 20 18 20 19 19 17 21 22 16 12 8 5
60 62 65 75 84 78 78 77 72 60 59 61 62 60 57 53 45 36 44 43 37 31 29 28 22 24 21 19 21 24 24 21 16 11 6 5 4 3
67 62 75 81 94 87 81 71 71 85 88 82 82 81 64 55 54 55 45 41 41 24 24 25 18 25 27 24 18 13 10 7 6 5 3 3 3 3
64 73 80 100 90 80 73 81 91 95 89 82 74 58 58 52 43 35 27 22 21 24 27 32 25 21 14 10 6 5 4 4 3 3 3 3 3 3
93 96 99 86 82 87 90 92 95 85 64 50 47 41 31 24 20 25 32 34 31 24 20 20 12 8 5 4 3 2 3 4 5 4 3 3 4 4
82 92 94 87 93 98 91 82 69 58 49 40 38 39 36 33 31 26 24 23 20 14 6 8 5 4 3 2 2 3 4 4 5 5 4 4 5 6
96 93 97 99 86 72 61 59 59 57 53 50 47 40 30 24 20 18 14 10 7 6 4 4 3 3 4 3 2 3 4 6 7 8 7 6 6 6
88 100 77 64 52 48 52 67 71 64 56 46 36 27 22 17 13 8 6 5 4 4 3 4 3 3 4 4 4 5 6 6 6 6 6 5 5 5
87 61 49 48 52 62 70 68 59 49 41 35 29 22 17 11 6 5 3 3 4 4 3 4 5 4 4 4 3 4 4 5 5 4 4 4 4 5
55 52 60 76 79 69 55 48 42 38 33 28 20 14 10 6 4 3 4 4 4 4 4 4 3 3 4 4 3 3 4 4 4 4 4 5 5 6
70 76 73 60 54 47 44 41 36 30 22 15 12 8 5 4 4 5 4 4 4 3 4 4 4 4 4 4 4 5 4 5 4 4 5 5 5 6
59 54 48 44 43 41 35 29 20 14 11 9 6 5 5 6 5 6 5 4 4 4 4 4 4 4 5 5 5 6 6 6 6 6 7 7 8 8
47 44 42 36 28 23 17 14 11 8 7 6 6 7 7 7 6 5 4 4 3 3 4 4 4 4 5 5 6 6 7 7 8 8 9 9 9 8
41 31 21 17 13 10 9 7 7 6 6 8 8 9 8 6 5 5 4 4 4 4 4 4 5 5 6 7 7 7 7 8 9 9 9 10 9 9
18 15 10 8 7 7 7 6 6 8 8 10 10 8 7 6 6 6 5 5 5 5 5 5 5 6 6 7 8 9 11 10 11 12 14 14 13 12
9 7 6 6 6 7 8 8 9 10 12 9 9 9 8 8 8 6 6 6 6 6 6 6 7 8 10 11 10 12 16 17 17 16 14 12 11 11
6 6 6 7 9 9 9 10 12 12 9 9 10 9 10 10 8 8 9 10 11 11 11 11 11 13 15 17 18 18 16 13 12 12 11 11 10 9
7 8 9 9 9 9 12 16 12 10 11 11 10 11 12 10 10 11 12 14 15 15 17 19 18 18 18 18 15 13 12 12 10 9 8 8 7 8
10 10 9 9 10 16 18 13 11 11 12 12 12 12 12 12 14 14 16 21 21 21 22 21 21 18 14 13 12 11 10 10 10 9 10 10 9 9

GFSNE_250_rhum_051.txt.gz
RH
100 100 100 100 89 73 84 90 92 82 78 77 71 72 71 69 70 69 64 58 48 43 43 46 53 55 53 55 56 56 57 55 51 48 44 40 37 32
100 100 100 100 92 93 78 83 73 72 68 70 76 78 79 80 75 71 71 65 60 57 49 43 42 42 44 46 46 47 46 40 36 33 30 28 27 26
100 100 98 100 95 75 76 85 72 57 55 64 69 76 74 85 85 81 71 64 59 54 49 46 45 47 49 46 44 43 39 36 35 32 30 27 25 23
100 100 100 100 65 77 81 77 58 63 56 60 61 64 72 66 64 64 64 66 57 55 52 54 61 59 54 49 43 38 34 31 28 25 22 20 20 17
98 100 94 100 78 87 75 53 61 62 66 63 67 60 61 64 65 66 67 66 66 62 60 56 47 38 35 36 33 33 29 23 20 21 19 17 16 14
100 100 98 96 100 77 65 82 79 66 65 65 60 66 66 61 63 68 76 67 58 45 36 31 28 25 23 22 22 23 22 19 19 19 20 18 16 15
90 82 84 84 68 70 81 71 59 74 80 74 70 71 68 71 67 59 45 38 36 28 29 35 35 32 32 29 26 24 22 20 20 20 18 18 16 13
100 99 74 75 81 76 68 69 85 80 77 82 76 67 55 52 39 41 46 40 40 34 27 27 21 21 17 14 11 10 10 10 10 8 6 5 5 4
68 70 82 95 86 77 80 79 71 73 72 60 55 52 45 44 47 47 41 30 27 24 18 17 12 10 7 6 4 4 4 4 4 4 3 3 3 3
71 98 90 75 65 63 66 63 64 63 58 54 52 56 58 51 38 30 26 22 18 12 6 6 5 5 4 3 2 2 2 3 3 4 4 4 4 3
90 78 65 60 60 60 63 70 75 72 67 67 63 50 40 33 25 20 16 13 10 7 4 3 3 3 3 3 2 2 3 4 4 4 5 4 4 4
61 62 67 73 79 86 83 78 78 71 59 45 40 35 28 20 16 14 10 6 4 4 3 4 4 3 4 3 3 3 3 4 4 4 4 4 4 4
74 77 78 78 78 78 72 61 51 44 42 37 33 26 20 14 10 7 4 3 4 4 4 4 4 4 4 4 3 3 4 4 4 3 3 3 4 4
84 88 87 80 69 58 48 44 41 38 35 31 25 17 13 9 6 5 4 5 4 5 4 4 4 3 3 4 4 4 4 4 4 4 4 4 4 4
83 75 68 49 45 45 41 40 35 28 20 15 11 8 7 6 6 7 6 6 6 5 4 4 3 3 3 4 4 4 4 5 5 6 6 5 5 5
55 44 45 45 40 32 25 19 14 11 9 7 7 7 7 7 8 8 7 6 5 5 4 4 4 4 4 4 5 5 5 5 6 6 7 6 6 6
43 42 38 30 19 14 11 8 8 7 6 7 9 9 8 9 9 8 7 7 7 5 5 4 5 5 5 5 5 6 6 7 7 8 8 8 7 8
39 30 20 14 9 7 6 7 7 8 9 9 9 10 10 9 8 8 8 8 7 7 6 6 6 6 6 6 7 8 8 9 10 10 10 9 8 8
24 15 12 7 6 6 8 8 9 9 9 10 12 10 8 9 9 9 9 9 10 10 11 12 13 12 11 11 11 13 12 14 15 16 16 17 17 16
17 13 8 7 8 9 9 9 9 11 13 13 9 9 9 10 10 10 11 10 12 16 18 19 18 19 19 19 18 17 17 16 15 14 13 12 11 11
18 10 8 9 10 10 10 12 15 16 12 9 9 10 11 12 12 11 13 19 23 24 23 22 21 20 19 17 15 13 12 12 11 11 11 10 9 9
14 9 10 11 11 13 16 20 16 12 11 11 11 12 13 13 12 15 24 27 25 24 22 22 20 17 15 14 14 13 12 12 12 11 11 11 12 13
11 10 12 13 14 17 21 19 14 12 12 13 13 14 14 14 16 29 32 28 26 24 23 19 16 16 15 14 13 12 10 11 12 12 12 12 13 12

GFSNE_250_rhum_054.txt.gz
RH
100 100 100 100 100 100 100 100 100 100 94 92 79 82 71 84 80 66 63 61 64 65 67 58 57 56 55 52 56 57 57 54 51 45 41 45 48 48
100 100 100 100 100 100 100 100 100 100 86 68 73 77 79 75 64 70 66 53 56 55 53 58 57 62 66 67 61 63 67 61 57 51 45 40 42 43
100 100 100 100 100 100 100 100 100 99 62 66 62 67 75 71 73 78 60 58 55 56 56 55 61 63 65 65 62 64 67 69 66 62 54 48 44 41
100 100 100 100 100 100 100 100 100 70 60 55 63 62 54 73 89 63 63 57 57 58 52 47 47 42 40 38 36 37 39 41 43 45 47 46 41 37
100 100 99 100 100 100 100 98 99 94 90 79 71 71 85 84 82 66 64 62 54 52 42 32 27 26 25 26 32 41 40 38 39 37 31 27 25 22
98 100 100 100 100 100 92 70 63 68 72 71 88 91 90 73 60 58 54 51 48 39 30 29 36 37 34 32 33 30 28 29 30 30 30 26 18 13
100 100 100 100 100 100 75 63 67 86 97 90 81 75 68 61 65 57 48 39 36 38 44 42 31 28 24 22 18 16 14 13 14 15 16 16 16 16
100 100 100 96 85 80 78 88 96 100 98 77 71 83 64 54 49 43 36 45 46 39 40 39 28 27 20 14 8 6 5 4 4 5 6 6 6 6
100 100 99 85 89 87 91 99 84 67 67 82 78 58 55 49 50 55 47 40 42 38 35 37 24 18 8 5 4 3 3 2 2 3 3 3 3 3
93 77 83 85 96 98 83 75 77 77 79 66 49 45 49 46 41 40 38 39 39 30 16 14 8 5 4 3 2 2 2 3 4 4 3 3 2 2
100 83 84 92 86 82 86 81 77 66 54 54 53 47 44 39 36 35 33 34 22 14 7 5 4 4 4 4 3 2 3 4 3 3 3 3 3 3
86 100 96 88 84 83 78 73 64 60 51 46 42 41 38 34 31 30 20 12 8 8 5 6 6 5 6 4 3 3 3 3 3 3 3 3 3 3
100 91 85 79 75 64 55 49 51 49 48 43 37 34 29 25 18 11 8 7 6 7 6 8 8 6 5 4 3 3 3 3 3 3 3 4 4 4
86 90 79 63 57 53 54 52 47 43 39 34 28 19 14 12 8 7 6 7 8 9 9 6 7 6 4 4 4 3 4 4 4 4 4 4 4 4
85 74 73 64 60 56 49 44 36 31 25 15 11 8 8 7 8 9 9 8 8 9 9 7 6 6 6 5 5 5 5 4 5 5 5 5 5 5
76 67 65 60 50 45 39 32 23 15 10 8 8 9 9 9 9 10 10 9 8 7 9 8 8 8 8 7 6 6 6 6 6 6 6 6 6 6
66 61 56 46 44 38 26 17 14 8 8 9 9 8 9 10 12 10 9 10 9 9 8 10 12 15 10 11 11 10 10 9 8 8 8 8 8 8
62 62 48 41 31 21 14 12 8 9 10 9 11 14 16 13 10 9 9 10 10 11 14 15 17 16 18 18 18 18 16 17 16 16 14 13 13 12
61 47 36 26 18 13 11 8 10 11 12 15 19 15 11 10 10 10 11 9 11 20 22 22 22 22 20 20 18 17 15 14 14 14 14 14 14 13
44 31 22 19 15 14 8 9 11 13 18 22 16 12 11 10 10 11 12 13 20 22 22 26 23 22 18 15 14 13 12 12 11 11 11 11 11 11
29 20 17 14 14 10 9 11 12 17 22 19 14 11 12 12 12 13 13 26 26 25 25 25 21 17 15 14 12 12 12 12 12 12 11 10 10 9
18 17 15 14 11 10 12 12 14 21 23 17 14 13 13 15 14 13 24 26 25 26 27 22 18 16 15 15 15 15 16 16 16 14 12 12 12 12
15 16 15 13 10 11 13 13 17 23 22 17 14 15 15 15 15 21 32 29 28 27 22 18 17 17 17 18 20 20 19 18 17 17 17 14 12 11

GFSNE_250_rhum_057.txt.gz
RH
100 86 100 100 100 100 100 100 100 100 100 100 100 100 97 87 72 63 70 66 58 66 72 73 82 90 84 72 61 54 52 55 58 69 70 65 56 59
100 100 100 100 100 100 100 100 100 100 100 100 98 99 100 100 71 54 58 61 61 59 59 68 69 64 62 60 53 56 63 67 62 58 56 64 66 68
100 100 100 100 100 100 100 97 100 100 100 94 90 100 100 100 98 95 72 58 58 68 65 68 58 53 52 52 51 53 48 45 42 42 41 41 44 49
100 100 100 97 95 94 98 100 99 92 100 99 91 74 66 65 68 66 76 78 71 68 62 58 56 51 43 37 39 40 40 34 35 34 37 38 38 42
100 100 100 90 95 91 98 100 100 100 100 100 98 88 74 68 67 73 72 71 66 71 69 57 48 43 45 44 44 44 39 31 30 29 28 30 31 34
96 100 96 100 90 89 100 100 100 94 93 78 78 83 80 83 77 62 70 78 84 70 60 53 49 52 45 37 30 26 23 23 21 18 17 16 16 17
99 100 100 100 100 100 100 100 91 80 80 96 97 83 75 70 77 82 82 70 63 61 59 60 45 36 31 26 22 21 15 9 7 6 5 5 5 6
100 100 100 100 100 100 98 93 82 83 89 86 80 70 79 71 78 66 59 60 65 65 46 39 34 34 28 22 15 7 5 4 3 3 3 2 2 2
100 100 100 100 100 99 100 88 76 72 69 67 68 78 71 58 59 62 66 60 44 40 36 42 37 29 21 11 5 4 4 3 3 3 3 3 2 2
91 93 100 100 100 84 88 84 79 80 74 69 53 57 58 64 67 60 45 42 41 36 27 34 21 11 8 5 4 4 5 4 4 4 3 3 3 3
86 89 94 93 96 96 94 96 89 79 63 53 62 70 66 54 47 42 40 36 33 26 15 10 7 7 5 5 5 6 6 5 4 3 3 3 3 3
96 96 94 95 100 100 94 93 90 76 74 70 64 59 50 43 39 36 31 20 11 9 8 8 6 7 8 5 6 6 6 5 4 3 3 3 3 3
100 100 100 100 100 98 96 85 76 67 60 54 50 43 38 36 33 25 14 9 8 8 9 9 8 8 8 9 6 7 7 5 5 4 4 3 4 4
100 91 85 92 96 95 85 78 67 59 50 43 39 36 32 25 15 10 8 8 8 8 8 10 10 8 8 8 7 7 7 8 5 6 5 4 4 5
99 100 100 100 93 87 79 61 49 46 42 38 31 22 15 10 7 8 9 8 9 11 10 9 10 9 9 8 11 11 10 11 9 7 7 6 6 6
100 99 95 90 82 69 52 40 42 40 29 21 16 13 9 8 11 12 13 12 9 8 10 10 10 10 17 13 18 15 19 14 15 12 11 10 9 8
86 80 72 65 57 48 41 40 31 21 18 12 11 8 9 10 12 15 12 10 10 10 10 9 13 17 22 20 20 18 18 17 15 14 15 14 13 11
71 65 59 52 45 38 30 22 19 14 12 11 9 10 10 12 15 13 12 11 11 13 14 17 19 19 21 23 20 17 15 14 13 13 13 12 13 14
57 51 44 37 30 23 20 20 16 13 12 10 12 12 14 18 16 13 12 12 13 15 23 23 24 23 21 17 16 15 14 13 12 12 11 11 11 11
45 37 33 28 19 20 20 15 13 11 10 12 13 16 22 18 14 13 14 14 14 24 24 25 24 22 18 18 17 16 16 15 13 12 11 11 10 9
37 35 31 22 19 20 15 14 12 10 12 14 16 21 22 16 14 14 14 16 30 27 26 25 23 19 18 18 21 22 23 23 19 15 14 13 11 12
46 39 23 18 20 15 14 12 11 12 13 15 22 22 18 15 14 15 16 22 29 27 27 24 20 20 19 20 24 27 28 29 28 25 22 17 12 13
40 26 17 19 16 13 11 11 12 14 14 20 23 21 17 15 16 17 18 32 27 28 26 20 20 20 22 29 29 33 30 25 21 20 20 19 17 13

GFSNE_250_rhum_060.txt.gz
RH
100 100 100 100 100 100 100 100 100 100 100 100 100 100 100 100 100 100 100 98 100 93 77 59 54 57 59 55 57 56 54 54 59 64 66 62 57 58
91 100 100 100 100 100 95 100 100 100 100 100 100 98 99 92 79 93 98 97 93 77 71 69 64 69 65 57 53 54 57 56 55 53 47 48 52 51
97 100 100 100 100 100 100 100 100 100 100 100 87 100 96 84 76 78 76 72 67 65 66 68 71 74 68 58 52 56 57 54 50 49 51 51 51 51
92 99 100 100 100 100 100 100 100 100 100 83 76 76 81 89 69 64 73 72 73 67 61 52 51 52 53 53 55 60 58 57 57 57 53 45 43 42
98 100 100 100 100 100 100 100 100 100 93 84 72 79 74 97 98 89 76 81 71 63 62 60 60 52 49 53 58 58 56 48 43 39 37 35 33 30
63 74 92 100 100 100 100 100 94 94 91 100 100 100 79 74 77 78 82 79 79 72 55 54 52 56 55 56 49 40 41 44 43 40 35 30 23 17
74 86 94 95 99 98 99 99 86 98 97 98 100 97 91 88 71 71 69 67 63 58 55 54 56 53 51 45 42 43 41 34 30 25 15 9 6 6
99 97 98 100 100 100 90 88 90 94 91 96 95 89 78 78 72 69 68 64 57 46 57 66 46 50 44 43 38 32 29 22 10 7 5 4 4 4
99 100 98 90 77 75 77 81 89 90 84 78 85 83 75 70 65 64 57 56 59 51 45 56 52 49 40 33 24 18 10 7 6 6 5 4 4 4
90 88 81 73 69 73 81 84 92 95 96 89 84 83 78 72 74 73 70 60 52 51 47 49 40 35 26 12 8 6 7 8 7 6 5 4 4 4
74 78 78 80 87 93 98 100 100 100 99 99 91 86 87 90 78 57 51 48 43 38 35 33 25 16 10 6 7 7 7 8 9 8 5 5 4 4
81 86 95 100 100 100 100 100 100 100 100 96 86 76 60 52 51 45 39 37 34 28 20 15 10 8 9 6 7 8 8 8 10 7 6 6 4 5
100 100 100 100 100 100 100 100 100 100 96 81 62 51 48 47 43 39 32 22 16 13 13 10 8 8 11 12 7 6 7 9 11 8 11 9 7 6
100 100 100 100 100 100 100 100 93 76 66 56 49 47 49 41 28 18 13 12 11 10 9 12 14 14 11 9 8 6 8 12 15 12 14 13 12 8
100 100 98 94 88 83 76 70 65 58 56 51 43 33 22 15 12 11 9 9 9 12 17 17 13 10 9 11 10 9 16 13 19 17 16 16 16 13
85 82 79 76 72 65 60 55 49 42 34 27 23 14 12 11 11 11 8 10 10 16 16 13 13 12 11 15 19 21 23 22 18 16 14 14 14 15
71 69 67 63 55 48 42 35 28 27 27 21 14 12 11 11 10 10 11 14 18 14 11 12 14 14 21 23 24 25 23 18 15 13 13 12 11 12
67 64 55 48 43 36 33 32 28 22 17 14 13 11 10 9 10 13 16 20 15 13 14 15 13 21 27 27 27 23 18 16 15 13 12 11 11 10
61 56 49 46 40 39 41 30 23 17 14 13 11 11 10 11 13 18 21 18 14 15 19 20 22 26 27 28 22 18 18 20 18 18 14 11 11 11
62 51 44 40 42 43 30 23 16 14 12 11 10 10 12 13 18 23 20 16 15 17 19 30 28 29 27 22 20 23 27 20 19 18 18 23 22 16
61 52 46 48 43 32 25 18 15 12 10 10 10 13 14 17 23 24 18 16 19 18 20 30 29 27 22 22 21 27 34 32 32 26 18 15 19 20
63 51 54 47 37 29 21 16 13 10 10 11 13 14 17 23 24 21 16 16 19 20 31 30 27 23 23 25 37 45 45 42 38 30 26 20 16 16
62 52 52 42 32 22 16 13 10 11 12 14 15 16 23 25 25 20 16 19 18 27 30 28 24 25 31 44 46 44 41 32 28 25 26 22 18 15

GFSNE_250_rhum_063.txt.gz
RH
100 100 100 100 100 100 100 100 100 100 100 100 100 100 100 92 90 98 100 100 100 88 78 73 69 60 52 61 66 69 62 64 64 57 53 53 55 54
84 86 91 100 100 100 100 100 100 100 100 100 100 100 100 100 100 100 100 100 92 82 74 70 64 67 64 56 64 61 60 63 59 53 55 58 61 63
54 62 73 90 100 100 100 100 100 100 100 100 100 100 100 100 100 100 100 100 85 65 66 63 63 66 68 66 69 62 65 66 66 64 70 66 61 61
42 53 68 77 90 100 100 100 100 100 100 100 100 100 100 100 100 100 100 83 80 74 74 74 80 73 64 61 67 73 71 68 65 59 52 50 52 52
39 44 51 58 66 75 90 98 100 100 100 100 100 100 100 99 96 80 78 84 90 82 76 77 76 76 69 68 71 71 66 56 50 45 48 54 48 43
36 45 53 60 65 72 75 82 79 82 84 93 88 88 91 86 80 76 75 81 87 87 82 75 74 71 72 67 62 51 43 42 49 50 46 45 44 39
34 50 63 80 88 94 100 100 95 92 92 97 91 90 83 82 75 81 84 86 80 75 75 72 59 54 43 41 41 40 43 46 46 44 41 39 34 26
45 60 75 87 99 100 100 100 91 99 99 92 81 81 81 88 81 77 75 67 66 70 69 61 54 50 41 43 41 41 41 41 39 35 29 23 16 10
58 79 92 91 86 89 99 99 86 81 87 89 87 84 80 75 80 81 79 76 75 76 66 56 42 44 42 39 35 32 27 24 19 14 12 9 7 6
94 90 88 91 93 95 93 86 82 80 77 80 90 95 95 86 82 80 77 70 58 51 49 48 44 41 32 22 17 14 12 10 9 8 7 7 8 7
71 75 76 76 74 76 92 96 98 97 92 92 94 85 93 98 91 73 61 54 51 48 40 33 26 24 14 9 10 9 8 8 8 8 10 10 8 5
86 83 82 85 88 87 87 90 100 100 100 100 100 99 83 73 67 59 53 48 41 33 27 21 10 10 11 7 7 7 9 11 11 10 9 8 8 7
99 100 100 100 100 100 100 100 100 95 85 80 76 69 65 59 55 50 42 30 23 18 17 17 11 9 8 8 6 10 11 10 11 10 10 11 11 12
100 100 100 95 92 91 90 84 77 72 67 63 58 53 48 43 37 27 22 20 15 14 12 13 10 8 9 12 14 10 9 11 10 13 16 17 19 18
80 82 77 77 75 72 67 62 59 54 48 44 41 43 42 33 28 21 16 13 12 11 11 12 12 12 15 14 12 9 11 10 16 18 19 18 17 15
80 74 70 68 67 64 59 56 52 44 43 48 59 49 32 20 13 12 12 13 11 9 11 16 17 19 15 12 14 12 16 20 21 21 18 16 13 12
83 80 76 73 70 66 60 53 45 44 56 56 40 22 13 11 12 13 12 10 9 10 12 20 21 15 12 14 16 24 24 25 22 18 14 13 14 11
81 87 85 80 77 70 61 53 43 56 58 35 18 13 11 12 12 11 11 11 11 12 20 20 15 12 16 20 27 28 27 22 17 16 18 15 18 20
90 92 88 82 76 66 56 44 54 58 31 16 13 12 12 11 10 11 12 13 14 21 20 18 14 15 19 30 28 27 23 25 25 30 28 29 24 18
95 92 88 81 68 59 44 51 58 32 19 15 13 12 11 11 12 12 13 17 21 19 15 18 19 20 32 31 28 23 22 21 28 28 30 26 24 20
100 95 88 73 60 46 53 60 36 21 15 13 12 11 12 12 12 12 15 20 20 17 15 18 21 31 30 28 23 23 30 34 33 33 29 26 30 28
95 91 82 61 44 52 64 42 23 16 13 12 11 12 13 13 12 15 21 21 20 18 17 18 28 30 28 24 20 31 43 45 47 50 52 51 31 24
91 85 61 46 55 64 49 26 18 15 12 12 12 13 13 12 17 20 20 21 20 17 19 24 30 28 25 20 29 44 50 44 42 44 51 48 42 42

GFSNE_250_rhum_069.txt.gz
RH
12 14 16 17 17 19 21 25 29 33 43 68 93 100 100 100 100 100 100 100 94 100 100 100 100 100 100 100 100 100 100 100 100 95 89 100 100 99
19 18 20 18 15 13 12 17 22 30 38 54 68 80 100 100 100 100 100 100 100 100 100 100 100 100 100 100 100 100 100 100 98 100 100 100 100 93
20 18 15 14 7 6 6 8 12 23 38 62 68 86 99 100 100 100 100 100 100 100 100 100 100 100 100 100 100 94 99 100 100 100 100 99 89 87
22 14 12 10 5 4 5 7 11 22 83 100 100 92 82 99 100 100 100 100 100 100 100 100 100 100 100 100 100 100 100 100 100 98 95 77 66 66
28 24 17 13 7 5 7 8 13 18 50 78 100 100 100 97 100 100 100 100 93 100 100 100 100 100 95 92 90 85 90 91 80 72 63 61 54 50
37 37 30 22 12 10 13 14 16 23 46 81 91 99 100 100 100 100 100 100 100 100 99 88 86 91 88 82 73 63 59 57 55 53 51 49 50 52
41 44 40 30 26 21 18 28 34 49 70 87 94 97 100 100 100 99 99 97 93 92 96 93 81 60 56 51 50 51 52 54 54 56 56 52 48 46
41 43 45 47 45 43 41 51 62 72 83 91 97 97 97 95 95 99 100 100 96 79 68 62 53 55 59 62 60 55 50 45 41 39 32 28 29 30
44 46 48 52 54 56 59 61 60 61 64 67 73 78 78 77 73 69 70 67 65 66 66 65 62 58 52 49 46 41 34 30 26 29 30 24 18 14
44 47 49 51 54 61 66 69 70 73 73 74 74 75 74 72 69 68 67 66 66 66 65 61 60 57 50 44 38 31 28 27 26 26 20 13 9 8
53 54 54 54 57 60 66 72 77 79 82 85 86 85 86 85 84 82 81 79 76 75 78 72 64 57 44 27 26 27 24 18 15 14 10 8 8 8
62 63 65 68 73 76 79 86 92 97 98 98 98 99 96 90 86 81 79 78 75 68 64 53 39 36 37 30 20 14 12 12 12 14 11 9 8 8
67 69 74 78 79 82 88 93 98 100 100 96 89 82 77 74 74 73 70 61 45 30 31 38 40 37 34 36 14 9 9 9 11 11 10 9 10 11
76 76 78 81 85 89 92 93 93 91 85 80 74 72 70 67 54 41 33 34 42 45 44 39 32 21 18 15 13 10 9 8 9 11 14 17 17 14
80 79 81 82 81 83 86 92 93 86 82 74 70 70 57 54 57 58 58 53 40 25 17 15 15 15 13 12 11 8 10 8 11 22 20 15 14 14
80 79 82 82 85 86 91 92 86 82 77 70 69 63 69 72 68 56 41 25 14 12 12 12 12 12 10 10 10 11 12 13 14 18 14 15 21 22
76 76 78 81 84 87 86 81 83 82 76 69 64 72 79 69 54 37 17 13 14 12 11 12 13 12 11 11 12 16 20 17 17 16 16 24 29 27
80 78 76 80 83 85 80 79 78 77 75 62 62 82 78 55 42 19 15 15 14 11 12 14 15 15 14 12 19 22 19 15 17 21 25 29 30 31
81 80 77 77 82 79 75 76 78 78 68 59 64 80 59 48 26 15 16 16 13 11 13 14 14 15 16 17 19 27 14 18 20 29 29 26 27 44
85 86 78 79 82 82 83 82 79 73 64 61 76 67 49 40 19 15 15 16 12 12 12 14 19 23 23 20 14 22 18 21 28 30 26 24 40 43
88 82 79 86 84 80 82 80 78 66 67 72 74 52 48 31 18 15 16 17 14 13 15 20 24 25 24 20 16 19 22 28 30 26 28 43 52 50
91 86 87 82 80 81 83 82 69 70 71 76 57 49 42 25 20 17 17 18 18 22 22 18 19 22 24 20 15 19 27 28 25 26 36 46 56 51
90 86 83 80 81 90 86 79 68 69 74 62 54 46 34 21 23 21 18 19 20 22 23 18 17 18 18 17 16 21 30 27 22 22 35 41 47 53

GFSNE_250_rhum_072.txt.gz
RH
26 28 27 23 22 20 20 17 15 13 15 14 18 25 44 60 88 100 100 100 100 100 100 100 100 100 100 100 100 100 100 100 100 100 100 100 100 87
28 29 28 26 28 25 18 14 13 12 10 7 8 15 44 100 100 100 100 100 100 100 100 100 100 100 100 100 100 100 92 87 100 100 100 100 100 100
32 32 32 35 32 28 23 19 15 12 7 5 7 12 28 38 79 100 100 100 100 100 100 100 100 100 100 100 100 100 100 100 100 100 100 92 100 88
33 32 35 35 33 32 28 28 22 14 7 7 9 15 31 73 100 100 100 100 100 100 100 100 100 100 100 100 100 100 100 100 98 86 77 80 99 100
36 38 38 36 34 35 34 33 31 22 14 11 13 21 32 66 100 100 100 100 100 100 100 100 100 100 100 100 100 88 90 96 79 87 88 96 82 72
42 43 40 37 35 36 37 37 33 32 28 29 32 50 53 62 84 90 85 91 99 100 100 100 100 99 100 89 98 100 93 95 90 80 80 69 59 57
47 44 44 40 39 40 41 41 42 39 34 39 50 63 79 84 92 96 94 96 96 95 100 98 97 94 90 86 88 87 80 74 70 67 66 63 61 57
57 48 46 45 48 48 48 50 47 46 48 55 53 61 63 71 83 82 86 89 84 84 85 81 78 77 78 79 77 75 74 72 69 65 60 56 49 44
60 50 46 48 52 56 56 54 54 55 54 54 54 60 66 73 79 82 83 85 86 88 86 86 85 86 84 82 79 74 69 63 57 52 49 45 38 29
61 55 54 56 61 62 58 57 55 55 62 71 84 86 83 82 84 88 91 93 91 92 88 81 79 74 65 59 54 50 48 46 43 39 34 33 32 28
69 65 64 64 64 60 64 65 67 70 72 75 77 78 79 80 81 82 80 82 84 80 69 58 54 52 48 44 42 39 38 36 37 42 46 41 30 20
69 73 76 81 80 76 71 67 62 68 75 78 78 76 77 74 73 73 75 74 66 58 63 76 74 71 65 57 48 43 42 39 34 26 20 14 12 12
74 82 86 82 81 77 73 71 73 78 81 81 79 76 73 72 72 74 74 63 55 67 70 65 57 51 40 27 17 14 12 11 11 12 13 12 11 11
89 89 86 80 76 76 76 78 82 82 81 80 79 79 76 72 69 71 66 52 61 64 54 48 40 24 16 13 11 8 8 8 9 10 11 11 10 11
83 80 78 75 75 77 82 84 80 76 76 78 79 78 75 73 75 67 57 59 61 44 39 26 16 15 14 13 12 9 10 8 10 11 11 12 15 16
76 77 77 77 79 80 84 84 83 82 79 78 79 78 77 75 70 60 66 60 43 40 29 17 16 16 13 11 10 10 11 11 11 13 14 19 23 21
75 76 78 79 81 83 87 87 86 86 82 80 79 80 81 77 66 69 63 46 40 32 18 17 16 14 11 11 11 12 12 13 14 14 21 18 18 18
79 82 82 85 86 88 92 92 93 86 82 83 81 84 83 72 66 71 62 45 42 22 17 19 20 13 12 11 11 12 15 16 20 20 18 15 21 20
92 89 80 80 85 90 90 91 88 84 81 81 81 85 76 64 65 67 56 46 43 22 18 22 21 15 12 12 14 27 26 24 19 16 19 18 27 28
94 93 81 74 80 85 90 89 85 83 78 81 82 75 64 61 60 59 47 47 38 22 20 22 25 22 22 23 16 16 38 32 18 18 21 23 32 34
92 88 75 70 79 88 88 86 85 83 82 76 67 59 59 55 54 44 43 44 29 23 21 20 25 27 27 27 23 16 18 35 23 17 26 29 31 31
88 82 71 78 91 90 89 88 85 81 65 54 50 55 56 47 41 38 40 36 22 23 24 20 20 23 26 29 26 19 13 22 22 18 32 30 26 26
80 70 74 87 91 92 87 75 58 46 41 39 38 38 36 34 34 38 36 24 21 20 21 19 17 20 20 23 27 20 15 20 21 23 32 27 22 32

GFSNE_250_rhum_075.txt.gz
RH
81 65 56 44 19 19 23 25 24 31 31 27 20 16 17 14 9 12 20 61 95 96 100 100 100 100 100 100 100 100 100 98 100 100 100 100 100 100
63 52 32 17 21 27 31 32 34 34 32 29 24 19 17 12 7 9 16 49 100 100 100 100 100 100 100 100 100 100 100 100 100 100 100 100 99 96
48 28 18 25 34 40 38 42 40 38 35 34 28 23 21 18 9 10 15 36 100 100 100 100 100 100 100 100 100 100 100 100 100 100 97 79 99 100
31 22 30 38 43 41 42 46 42 42 40 39 35 32 27 25 16 16 21 40 59 100 100 100 100 100 100 100 100 100 100 100 100 100 100 99 96 100
26 32 40 48 44 42 49 49 45 46 47 45 40 35 31 32 30 29 56 80 70 82 100 100 100 100 100 100 100 98 100 100 100 100 100 100 82 100
37 42 50 48 42 48 54 51 50 51 47 46 46 43 42 38 40 46 56 64 83 94 100 96 98 100 100 100 100 100 100 100 100 100 98 98 98 86
45 54 52 41 47 52 55 56 56 51 46 48 51 52 52 54 59 62 65 68 69 76 77 82 94 100 100 100 99 100 100 100 100 96 97 94 98 93
59 50 46 53 54 58 63 64 57 52 55 57 56 58 56 59 60 61 63 70 82 94 92 100 100 100 99 98 98 100 100 98 95 94 93 84 76 71
49 56 56 57 61 66 72 66 64 67 68 69 68 68 64 66 69 76 79 82 87 89 85 88 88 84 80 80 80 79 77 79 80 78 74 70 66 62
61 60 59 67 74 76 71 73 74 74 65 69 76 77 76 70 66 69 72 77 81 82 80 82 84 82 78 75 70 66 66 66 64 62 59 54 48 44
63 67 78 80 81 80 76 78 81 79 77 81 83 77 72 67 63 65 70 72 73 73 71 70 72 71 67 61 54 62 74 77 75 73 67 62 59 55
69 74 78 81 85 88 92 93 87 84 84 82 81 80 79 73 70 69 72 74 74 79 77 73 60 54 53 60 62 58 53 45 42 39 36 33 30 28
86 97 97 94 89 88 87 82 80 75 74 74 72 72 72 72 71 73 75 80 78 78 81 71 56 65 58 38 31 30 23 15 13 13 14 14 14 13
96 99 94 86 82 75 72 73 72 72 72 74 77 77 77 76 80 81 81 81 79 79 78 64 61 56 36 33 26 12 13 13 14 14 14 12 12 12
100 91 80 74 75 77 76 75 74 70 71 73 74 75 78 84 85 81 77 75 75 80 69 62 60 41 34 27 15 14 13 13 12 12 12 12 12 12
82 78 83 86 88 84 78 82 82 74 67 67 72 79 84 86 83 80 76 76 75 65 60 63 50 37 35 20 16 14 14 10 12 13 12 13 14 15
81 82 85 90 90 84 86 88 81 74 65 64 74 83 85 84 83 79 79 70 60 56 55 59 43 39 33 17 18 17 14 11 11 12 15 13 16 26
86 89 93 92 87 88 88 85 82 69 63 73 85 89 85 82 81 75 65 52 51 54 51 38 35 44 32 16 21 18 20 19 19 21 22 20 22 29
94 95 89 85 83 84 88 86 73 73 78 89 90 85 82 78 66 47 39 39 37 37 33 29 35 44 26 20 18 23 25 21 21 17 19 21 19 19
90 88 87 89 90 95 86 72 78 87 88 89 86 75 56 40 32 29 30 31 31 30 28 29 38 41 25 23 18 14 25 26 23 18 15 19 23 18
93 92 95 95 94 82 70 75 88 89 90 77 52 35 29 28 27 26 26 27 28 28 29 32 29 23 25 24 22 14 12 22 26 24 20 16 21 19
93 98 92 85 81 75 85 93 91 78 56 41 31 29 26 24 24 24 25 26 25 28 34 30 17 16 19 22 22 19 12 12 20 24 20 16 19 19
92 88 82 77 75 87 95 87 65 43 34 31 27 25 23 22 23 25 25 24 26 30 23 18 16 14 13 13 16 16 13 10 12 19 18 17 17 20

GFSNE_250_rhum_078.txt.gz
RH
96 89 84 77 78 69 59 40 16 21 30 37 38 39 42 39 32 28 19 14 15 9 12 20 64 100 100 100 90 100 100 100 100 100 100 99 99 81
91 85 81 80 69 56 42 25 21 26 38 42 39 46 45 42 35 31 21 16 16 12 16 30 73 100 100 100 100 100 100 100 100 100 100 100 100 100
89 81 81 66 50 47 48 26 28 36 47 40 44 51 48 46 41 38 28 25 21 22 25 34 68 100 100 100 100 100 100 100 100 100 100 100 100 100
81 78 63 43 52 63 33 33 36 46 40 47 52 56 52 51 55 44 41 34 33 34 42 59 73 77 99 100 100 100 100 100 100 100 100 100 100 100
75 62 51 64 68 46 37 42 46 41 50 50 57 58 61 64 56 51 49 44 48 55 62 79 73 82 90 95 100 98 100 100 100 100 100 100 100 100
58 68 97 70 59 43 46 46 45 51 53 57 64 73 70 67 60 58 60 59 59 56 60 69 77 89 90 99 100 100 100 100 100 100 100 99 100 100
84 100 83 73 47 52 48 52 53 55 62 73 77 70 72 74 67 68 70 68 68 69 75 84 84 85 87 81 81 89 90 95 97 100 100 100 100 100
100 91 77 52 52 55 54 58 58 66 75 77 74 77 80 75 69 66 67 72 73 72 73 80 82 84 83 81 79 77 74 73 73 76 73 66 65 69
100 86 58 57 58 60 62 64 73 76 79 82 83 81 75 68 62 71 74 74 75 72 72 75 74 79 82 85 82 78 74 75 76 75 75 75 77 77
78 63 67 60 65 68 72 75 86 88 85 72 65 65 66 65 67 67 67 70 72 74 76 76 79 79 80 80 78 75 78 81 79 71 66 62 60 58
69 79 64 60 74 79 88 93 86 81 80 72 67 66 68 68 69 70 75 78 79 82 84 80 75 75 77 77 73 74 78 69 62 68 69 64 58 56
81 67 56 72 84 92 92 84 85 79 71 69 72 73 72 71 66 62 65 72 76 79 81 82 79 76 75 74 75 75 61 57 59 55 45 37 35 35
63 59 70 85 93 91 83 80 74 77 77 74 73 73 74 73 68 60 60 65 66 75 82 80 74 76 75 70 56 52 49 51 42 38 35 19 15 15
71 83 91 95 89 83 78 81 84 78 76 75 76 78 76 72 64 58 57 65 75 75 78 80 77 70 66 54 45 40 49 43 36 34 19 16 16 16
97 92 88 85 80 81 85 87 82 81 80 78 80 80 76 65 64 66 69 79 78 77 76 67 59 53 44 42 42 37 36 32 39 26 20 19 16 12
98 95 85 84 90 94 89 88 89 85 81 80 81 79 69 58 72 82 81 80 72 57 51 44 34 32 32 31 30 27 29 32 29 24 25 22 17 15
86 90 92 92 88 91 91 90 86 84 82 81 81 73 60 67 82 78 72 58 46 35 29 29 29 29 30 30 27 28 28 30 27 20 26 24 22 21
88 90 92 89 90 89 90 87 85 82 85 85 75 61 79 85 79 62 49 34 25 24 23 23 24 27 29 28 28 27 28 28 22 20 22 24 23 28
100 98 95 94 96 95 84 83 83 88 84 71 59 84 88 84 62 40 30 26 23 22 22 21 23 27 28 27 28 29 26 20 19 20 20 23 22 22
98 96 92 91 89 86 90 92 89 83 70 67 90 90 74 49 32 27 24 23 22 22 21 21 22 24 26 32 37 20 14 17 20 19 17 19 20 19
85 85 91 90 89 94 95 92 84 72 81 94 85 60 40 31 25 24 22 22 22 22 21 20 21 27 30 30 26 20 12 10 15 18 16 16 17 17
89 96 99 98 97 98 89 82 72 80 92 80 51 35 26 24 23 23 22 22 22 22 22 25 25 20 14 14 17 16 12 8 10 13 15 15 15 15
92 100 96 92 85 84 84 74 87 90 75 47 29 25 24 23 23 23 23 23 23 23 28 27 16 13 11 12 14 14 10 7 7 11 12 12 14 13

GFSNE_250_rhum_081.txt.gz
RH
100 100 98 97 88 81 79 72 60 63 62 52 43 28 28 40 38 42 44 45 42 34 24 23 18 14 16 24 45 71 71 100 100 100 100 100 100 100
100 100 99 94 88 85 77 61 55 58 52 74 43 32 37 38 43 45 51 56 48 41 36 29 26 24 29 38 48 85 100 100 100 92 100 100 98 100
100 100 100 95 86 79 73 57 52 46 64 50 41 38 39 45 47 52 62 62 60 57 56 40 33 40 41 45 72 76 100 95 100 100 95 100 100 100
100 100 98 92 77 75 68 60 60 58 61 54 41 42 48 51 56 61 61 66 70 69 56 58 57 49 52 60 64 92 100 100 100 100 100 92 97 100
92 95 84 71 72 70 70 69 61 65 57 44 46 47 54 58 64 70 71 69 65 60 61 57 60 70 79 73 85 88 92 97 94 96 100 100 100 100
92 82 75 67 68 90 83 59 67 63 50 48 45 55 61 70 73 72 70 67 64 62 63 64 64 70 71 80 96 99 96 88 87 87 94 99 97 100
63 80 83 67 96 89 84 68 67 57 60 52 61 69 72 75 70 67 66 60 56 58 61 64 63 66 71 74 74 76 84 92 95 91 87 79 75 77
82 73 74 88 98 94 83 73 65 66 59 64 72 70 76 74 74 64 60 60 63 66 64 64 67 74 78 80 80 78 80 82 84 83 85 88 89 86
68 88 91 100 98 85 64 68 64 64 58 71 71 80 82 70 66 63 67 68 67 68 66 63 59 63 71 75 76 79 81 83 83 83 81 77 75 74
87 98 92 91 68 76 74 73 66 56 72 78 82 79 72 70 70 72 73 73 71 68 67 65 57 56 61 66 74 78 77 78 78 77 76 76 74 74
93 85 68 70 76 76 71 62 63 75 83 88 83 76 74 74 73 70 70 71 70 69 67 54 56 55 58 65 70 74 75 74 75 78 77 77 74 67
73 74 73 74 78 73 64 83 82 91 96 84 78 78 76 75 74 75 74 70 68 70 62 54 67 70 70 73 72 73 72 72 69 66 56 52 50 48
71 72 72 68 63 67 89 94 96 96 85 84 82 77 77 76 78 80 74 68 65 61 55 59 69 73 71 66 55 51 41 39 37 37 38 40 44 42
72 62 64 75 80 91 97 98 94 85 85 84 80 81 81 80 81 77 73 67 62 53 64 77 72 63 48 33 28 26 27 27 29 29 31 32 29 29
62 72 94 100 100 100 96 90 86 90 85 82 84 84 85 81 79 79 73 63 51 64 76 66 46 34 27 25 24 22 22 24 27 29 31 32 28 30
68 89 99 97 92 87 85 88 92 86 86 91 93 90 84 85 81 75 60 53 70 74 56 35 27 25 24 22 21 20 21 22 24 28 32 34 32 34
85 87 88 88 90 91 90 97 98 97 98 90 87 88 89 87 77 63 58 81 73 41 29 26 24 23 22 20 20 21 21 23 25 26 31 36 34 35
90 86 95 97 100 100 100 100 95 88 85 89 89 94 89 79 63 64 83 64 34 26 22 21 22 23 23 22 23 22 21 23 26 27 30 35 27 21
98 98 99 99 92 95 93 84 87 89 93 95 94 88 81 69 74 87 57 31 26 22 21 20 21 24 25 25 22 22 25 28 26 22 21 23 25 15
96 96 95 84 83 80 84 87 88 96 100 94 89 74 70 88 87 50 28 26 24 22 21 20 22 25 25 27 32 25 18 14 13 14 14 18 18 17
90 97 90 87 82 82 88 87 95 99 92 91 68 80 96 84 47 28 26 24 22 22 22 21 22 24 28 35 32 20 13 12 13 16 13 14 14 13
99 96 96 97 88 84 87 96 99 96 92 74 85 93 75 48 31 27 26 23 22 23 25 24 23 28 24 17 16 15 12 12 13 11 10 9 9 9
100 100 100 98 90 87 97 99 93 84 76 89 90 70 44 32 29 27 24 22 23 24 26 26 29 19 14 15 14 13 13 11 9 7 6 10 9 8

GFSNE_250_rhum_087.txt.gz
RH
100 100 100 100 100 100 100 100 100 95 98 86 85 74 75 70 74 70 61 49 43 46 40 45 51 54 58 55 54 43 37 34 34 32 28 23 31 66
100 100 100 100 100 100 100 100 98 94 90 71 80 71 79 78 72 64 57 52 54 53 44 53 56 61 65 60 51 48 46 46 42 42 40 39 53 80
100 100 100 100 100 100 100 100 91 82 71 73 70 90 85 73 66 62 56 57 54 51 53 54 59 68 66 58 54 52 53 53 53 54 55 51 62 76
100 100 100 100 100 100 92 92 81 75 64 74 83 79 78 74 69 68 71 55 52 55 52 58 69 70 64 59 56 56 57 58 60 60 56 63 70 80
100 100 100 100 100 100 88 75 72 63 71 69 81 79 83 72 69 82 75 58 61 55 56 70 75 69 67 64 60 58 58 60 60 62 64 61 63 70
98 96 92 97 87 71 63 61 59 66 64 64 77 88 79 69 68 78 62 64 65 64 70 79 78 74 71 68 64 64 64 64 64 63 64 61 58 61
92 80 80 76 68 74 71 63 70 59 66 77 74 74 84 84 73 79 68 72 67 82 81 83 82 76 69 63 63 63 62 62 62 63 64 58 56 58
50 55 65 65 60 66 72 64 64 61 81 70 85 74 74 87 72 67 66 61 77 89 92 82 79 72 67 67 65 64 64 65 65 60 51 44 49 54
54 56 57 74 70 82 68 56 69 73 84 89 79 86 82 65 68 62 64 85 93 91 84 78 73 70 68 66 66 69 70 66 60 48 44 45 53 60
40 42 46 62 62 59 57 67 96 87 87 76 81 59 66 64 62 83 92 92 87 87 79 76 68 66 66 68 72 72 69 58 47 45 60 67 70 70
34 39 54 47 50 64 92 100 86 86 68 74 69 68 62 73 92 94 89 88 89 84 75 70 69 68 67 70 71 63 49 45 60 67 61 48 38 36
34 38 48 64 79 86 100 92 79 76 68 70 69 62 82 85 84 84 86 84 81 80 81 71 71 73 68 62 50 45 53 69 66 39 24 24 23 23
46 64 73 84 100 100 97 84 63 68 68 65 63 74 70 74 84 86 81 85 94 89 76 70 75 70 66 55 49 68 65 54 28 24 23 21 21 21
68 80 76 92 96 92 82 76 71 68 66 69 76 84 84 82 87 87 94 96 90 77 74 79 78 73 62 59 73 70 55 30 25 24 22 20 20 20
100 100 100 100 95 93 84 76 74 78 85 93 89 87 93 94 94 100 98 87 77 76 83 89 88 77 66 76 74 49 29 25 26 24 22 21 21 21
99 98 100 98 100 93 80 75 83 94 98 98 100 100 100 100 100 94 86 80 80 84 89 94 87 85 92 84 50 29 26 26 23 22 24 26 24 21
96 98 100 100 100 90 81 81 93 97 97 94 92 91 91 92 89 82 80 85 90 94 97 95 90 99 87 45 31 28 26 26 22 23 26 27 26 27
100 100 100 100 100 99 99 98 94 97 88 85 86 91 94 86 78 82 89 90 96 100 100 100 100 89 51 37 31 27 27 24 22 24 26 29 30 20
100 100 98 97 100 100 100 99 97 92 90 85 83 92 86 80 83 92 96 100 100 100 94 94 90 53 40 35 31 27 25 21 23 25 28 28 20 15
98 100 100 100 100 100 100 100 99 98 96 94 91 87 79 85 94 99 100 100 100 99 85 77 48 39 37 34 32 25 23 21 24 27 24 19 22 18
100 100 100 100 100 100 100 100 100 100 99 95 94 86 90 98 100 100 100 100 100 82 63 44 41 36 33 32 30 24 20 22 26 27 19 24 20 15
98 100 100 100 100 100 100 100 100 98 95 92 93 100 100 100 100 100 100 100 80 60 42 39 35 34 32 30 27 21 20 23 29 20 21 27 22 17
95 100 100 100 99 97 97 100 96 93 93 100 100 100 100 100 100 100 96 68 50 43 42 37 34 32 30 27 22 21 22 26 27 19 24 27 24 19

GFSNE_250_rhum_093.txt.gz
RH
100 100 100 100 100 100 100 100 100 100 100 100 100 100 100 100 94 82 66 68 56 45 47 52 53 58 49 53 53 42 49 55 58 67 63 59 54 48
100 100 100 100 100 100 100 100 100 100 100 100 100 98 86 100 78 59 65 58 50 50 52 54 62 55 61 56 48 46 52 63 74 73 68 61 58 57
100 100 100 100 100 100 100 100 100 100 97 98 86 96 76 70 72 60 58 61 53 52 56 59 69 68 66 56 49 54 59 73 75 73 67 64 60 61
92 71 79 82 100 100 100 100 54 66 85 73 60 83 60 58 59 52 63 54 56 69 80 74 73 84 66 50 52 59 71 75 71 66 62 59 58 56
30 27 28 29 39 46 37 54 56 66 56 64 76 65 59 51 54 50 47 52 68 72 82 78 88 78 62 57 64 72 75 69 64 63 62 62 59 56
28 27 28 28 30 35 60 59 60 63 56 62 46 53 46 48 45 45 50 59 76 79 88 85 83 68 62 72 77 72 67 66 66 67 66 62 60 58
28 27 26 26 30 49 76 65 61 56 56 55 52 49 50 47 40 49 60 74 74 82 88 90 65 64 67 73 73 69 66 68 69 67 66 66 67 63
28 29 28 31 31 33 36 38 49 54 48 58 53 43 49 44 57 62 77 73 100 100 92 73 68 68 74 75 73 70 74 70 72 76 76 75 67 58
31 35 35 36 35 38 45 42 52 57 36 43 47 47 46 48 64 82 85 98 94 93 75 70 68 78 79 78 76 77 75 76 81 83 83 74 67 56
32 32 32 32 34 35 38 44 42 38 43 47 43 46 50 65 81 96 100 98 92 75 69 71 85 87 80 76 73 76 78 84 90 90 82 73 68 63
28 28 32 33 33 36 32 32 37 42 41 44 44 51 66 87 100 100 94 87 78 72 79 93 90 86 90 83 85 86 88 89 91 84 76 77 72 66
25 28 30 32 35 38 40 40 38 42 46 54 63 78 88 100 100 93 82 77 80 95 96 92 95 96 94 90 86 88 82 80 84 76 80 86 72 66
27 29 34 38 44 43 48 50 50 54 57 71 86 94 100 100 100 92 80 87 93 91 100 99 95 91 92 94 91 80 74 83 81 84 87 77 60 44
29 33 40 49 52 58 62 62 70 82 89 92 100 100 100 100 96 87 84 90 89 94 98 90 87 90 93 93 81 76 85 84 86 92 89 65 44 36
46 60 65 72 79 80 82 84 87 94 96 100 100 100 100 98 100 95 98 100 99 100 98 89 87 92 93 88 81 81 85 88 94 92 80 50 40 36
74 79 88 90 91 91 93 94 93 92 100 99 97 100 100 100 100 100 100 100 100 100 98 90 91 93 99 93 84 84 86 88 96 89 55 42 41 37
89 99 96 97 100 100 100 99 100 100 100 100 99 100 100 100 100 100 100 100 98 100 90 92 99 97 97 90 92 85 88 95 94 53 46 41 35 32
93 91 93 100 96 100 100 98 95 99 100 100 100 100 100 100 100 100 100 98 100 95 92 100 98 93 99 94 88 85 93 90 58 45 44 40 31 30
98 99 100 100 100 100 100 100 100 100 100 100 100 100 100 100 100 98 100 98 96 98 98 96 89 99 94 90 87 90 87 60 48 44 41 38 32 27
97 100 100 100 100 100 100 100 100 100 100 100 99 100 100 100 100 96 94 99 100 95 97 88 99 99 99 94 91 83 68 46 45 42 37 34 32 29
100 98 100 100 100 100 100 100 100 100 100 100 97 96 100 100 100 96 96 100 100 93 94 97 100 100 100 100 87 56 40 43 43 40 36 33 31 26
99 100 100 100 100 100 100 100 100 100 100 100 93 95 97 100 100 100 98 100 100 100 97 99 100 100 97 92 66 46 40 38 38 37 32 33 31 24
99 98 100 100 98 100 100 99 100 100 100 100 99 100 100 100 100 98 98 100 100 100 100 100 100 94 87 61 52 48 40 36 36 32 28 30 29 23

GFSNE_250_rhum_096.txt.gz
RH
100 100 100 100 100 100 100 100 100 100 100 100 100 100 100 100 100 100 96 45 43 33 33 37 45 44 54 61 66 64 61 59 50 51 57 79 77 70
100 100 98 100 100 100 100 100 100 100 100 100 93 99 63 54 53 49 44 45 41 35 34 43 49 46 53 64 71 68 68 58 53 57 66 75 76 71
34 53 54 39 58 77 58 47 42 46 37 52 69 57 45 51 59 60 49 40 35 36 40 43 50 47 62 76 69 69 75 56 59 70 77 77 72 66
31 30 30 29 30 34 35 34 36 39 36 35 39 35 50 62 54 60 54 35 39 45 45 51 48 56 75 74 86 74 58 57 73 73 72 69 61 58
26 28 28 29 28 27 30 31 34 33 33 33 35 37 47 43 50 50 44 45 46 52 54 47 66 72 80 88 92 79 59 68 77 72 65 62 62 64
30 30 29 29 30 29 31 33 32 34 37 38 38 38 38 36 40 40 42 48 57 69 52 57 63 78 85 93 87 67 68 70 70 67 64 67 68 65
34 33 32 32 32 33 31 33 32 33 34 34 36 36 36 40 37 40 46 56 58 56 63 61 84 99 95 94 73 67 69 72 72 69 69 71 69 70
30 31 30 31 32 32 32 33 33 35 38 38 40 38 38 37 41 50 55 55 55 65 73 88 100 98 89 74 73 78 81 80 75 70 67 69 70 70
31 32 33 34 33 35 37 37 38 39 36 36 39 38 36 36 40 52 60 50 73 86 87 100 98 89 77 79 89 94 88 82 75 67 66 70 73 72
32 32 32 33 35 36 35 35 34 34 33 34 33 34 41 45 49 55 55 74 90 98 100 99 80 79 84 96 96 95 96 98 90 84 83 82 79 76
25 25 24 25 25 26 26 28 32 33 32 37 44 44 46 49 52 62 89 90 98 100 100 93 78 84 96 92 99 99 96 93 86 83 83 76 75 80
24 24 24 22 24 27 28 30 34 36 39 48 48 56 57 62 77 88 86 88 100 99 97 85 84 95 92 90 99 94 94 96 89 83 78 84 80 76
20 21 21 22 24 24 26 29 35 42 52 60 61 67 76 80 87 98 99 100 100 98 91 91 95 96 95 98 94 89 92 90 85 85 88 78 79 80
20 20 20 21 21 22 26 37 51 64 71 77 83 91 95 97 100 97 100 100 99 97 100 98 100 99 96 98 97 92 93 90 86 88 80 79 81 81
36 33 33 34 37 43 56 73 82 91 94 97 100 100 100 100 100 100 100 100 100 100 100 100 100 98 93 100 97 91 90 89 88 85 82 82 81 83
52 55 63 68 69 78 85 89 98 100 100 100 100 100 99 100 100 100 100 100 100 100 100 100 100 97 100 100 94 92 92 91 93 89 85 81 82 79
68 69 75 90 93 100 100 100 100 100 100 100 100 100 100 100 100 100 100 100 100 100 100 100 100 100 100 100 98 93 91 90 88 87 84 79 81 54
84 78 80 85 94 99 100 100 100 100 100 100 99 99 100 100 99 97 100 100 100 100 100 100 96 100 100 96 100 91 93 90 90 91 85 80 59 45
99 100 100 98 98 97 97 98 98 100 100 99 100 100 98 99 100 100 100 96 92 91 100 100 100 100 100 99 98 92 90 97 96 91 86 67 48 40
95 100 100 100 100 100 100 100 100 100 100 100 100 100 100 100 100 100 100 99 94 97 100 100 100 100 100 99 96 90 96 93 98 86 66 54 48 38
98 97 98 100 100 100 100 100 100 100 100 100 100 100 100 100 100 100 96 96 100 99 99 98 99 100 100 100 94 92 92 96 88 66 53 49 42 36
100 100 98 100 100 100 100 100 100 100 100 100 100 100 100 100 100 100 100 100 94 93 98 96 100 100 100 100 98 94 91 86 71 60 50 44 41 38
100 100 100 100 100 99 100 100 100 100 100 100 100 100 100 100 100 100 96 94 94 99 97 100 100 100 100 100 100 97 87 76 64 54 43 42 42 40

GFSNE_250_rhum_099.txt.gz
RH
98 96 97 89 66 87 91 100 100 100 100 100 100 100 99 59 49 44 51 47 46 50 42 41 38 35 40 44 48 46 48 53 65 69 64 52 55 60
34 28 27 30 33 34 32 32 41 39 44 66 91 62 50 43 41 40 46 45 43 42 39 35 36 40 46 49 45 51 58 58 63 74 68 58 69 74
31 31 32 32 32 32 32 32 35 36 34 35 36 37 37 38 38 37 37 39 38 39 36 35 39 43 52 57 52 52 53 58 71 74 61 64 81 78
34 34 33 31 32 30 30 34 35 32 32 34 33 34 38 36 35 35 39 40 39 36 40 41 44 50 60 58 56 53 63 83 83 73 61 69 76 73
34 32 33 35 32 31 31 33 33 30 31 35 34 33 34 34 37 38 41 39 38 39 42 43 48 55 68 69 58 66 75 83 83 66 65 70 72 67
32 28 28 29 31 32 33 32 31 32 32 33 33 34 36 38 37 36 36 40 42 48 43 50 52 71 71 68 75 69 89 91 75 72 76 78 76 71
32 30 29 29 31 32 32 32 34 33 34 32 34 34 35 37 38 42 44 45 45 45 47 47 58 65 75 84 75 91 92 83 78 86 86 87 83 76
31 31 30 30 30 31 32 35 34 33 33 34 37 39 40 44 46 42 41 44 47 44 52 58 66 74 84 92 91 92 76 81 96 100 93 91 79 70
34 34 33 33 33 33 32 32 34 34 34 33 34 34 36 38 38 41 42 42 50 56 56 67 85 89 92 100 93 87 79 95 100 96 96 88 84 81
35 35 34 33 32 31 30 28 26 25 26 27 28 30 31 34 34 41 49 52 56 62 69 87 94 97 100 100 98 83 89 96 100 99 97 96 95 92
26 25 24 23 22 22 23 22 22 20 19 22 25 30 33 40 46 55 59 67 70 73 89 98 99 100 100 95 91 95 100 98 100 99 95 95 93 90
26 24 23 23 22 21 22 23 21 20 20 21 21 30 39 47 57 72 76 78 86 96 97 100 96 100 100 94 96 97 100 100 99 93 93 97 92 88
29 32 32 32 29 22 20 18 19 19 20 22 24 30 44 71 85 94 97 98 99 100 100 100 100 100 96 100 100 100 99 100 99 92 96 89 86 85
35 30 24 28 32 29 30 29 31 36 41 41 50 60 85 92 97 98 100 100 100 100 100 100 100 100 100 100 100 100 100 99 94 93 91 84 84 84
29 31 42 45 48 48 51 51 56 66 73 81 89 95 99 100 100 100 100 100 100 99 98 100 100 100 100 100 99 100 100 99 94 99 84 83 88 85
50 55 62 61 66 70 69 79 84 92 97 99 100 100 100 100 100 100 100 98 98 100 100 98 100 100 100 100 98 100 100 100 96 89 89 93 92 93
62 68 75 77 89 85 88 91 93 99 100 100 100 99 100 100 100 100 100 100 100 100 100 100 100 100 99 99 95 99 100 92 100 98 97 96 100 93
67 74 86 90 88 91 90 93 99 100 100 100 100 100 100 100 100 100 100 100 100 100 100 100 100 100 97 94 100 94 90 100 100 95 100 100 95 90
86 93 95 92 91 90 91 95 96 99 99 98 97 99 99 99 100 100 100 100 100 100 100 100 100 100 100 96 94 89 98 100 96 98 100 96 90 85
82 89 93 94 92 94 95 99 100 100 100 100 100 100 100 100 100 100 100 100 100 100 100 100 100 100 97 97 98 96 100 96 99 100 100 95 88 83
82 88 96 100 99 99 100 100 100 100 100 100 100 100 100 100 100 100 100 100 100 100 100 100 100 100 99 98 99 96 95 99 98 100 100 97 89 86
92 94 94 96 98 100 100 100 100 100 100 100 100 100 100 100 100 100 100 100 100 100 100 100 100 100 100 100 100 97 96 92 100 100 100 95 97 92
89 93 97 99 99 95 96 100 100 100 100 100 100 100 99 100 100 100 100 100 100 100 100 99 100 100 100 100 100 96 95 93 93 98 100 100 99 95

GFSNE_250_rhum_102.txt.gz
RH
100 93 95 79 80 72 67 44 51 38 43 40 45 38 41 46 42 41 42 42 43 42 42 43 40 44 42 42 38 44 50 50 53 53 54 54 60 56
80 63 41 39 39 38 40 38 38 38 40 40 40 40 42 42 42 40 40 41 40 40 43 41 44 43 42 40 41 45 51 58 56 61 64 59 66 62
51 57 53 48 47 44 43 44 42 39 40 39 36 36 35 36 39 42 41 42 39 39 41 38 40 38 39 44 48 51 52 54 62 69 79 73 64 55
58 56 53 52 51 50 49 41 34 36 36 38 34 32 34 34 36 36 34 36 38 40 38 37 41 43 46 51 57 52 56 62 71 72 71 76 72 65
53 51 46 48 51 45 39 33 35 41 40 36 33 30 31 32 33 34 37 39 39 39 41 42 47 48 56 57 49 54 61 71 81 85 77 72 68 70
40 39 39 38 36 32 32 34 37 35 35 34 32 32 33 33 34 37 39 38 41 44 46 51 54 55 53 55 56 63 79 86 93 85 75 66 73 80
33 33 33 33 32 32 32 30 32 33 35 34 33 33 33 35 37 40 41 44 43 45 46 46 45 53 56 60 68 71 86 93 100 86 74 73 86 94
28 27 29 30 30 30 26 25 26 29 32 32 32 35 35 38 40 40 42 40 40 38 40 37 49 51 58 68 81 86 96 100 99 85 80 91 99 98
28 29 27 22 19 18 18 18 20 22 26 29 28 27 26 28 30 31 30 31 33 37 42 50 56 60 69 83 94 94 100 100 99 89 96 100 100 97
20 20 20 19 18 17 18 20 21 22 23 24 25 23 21 22 26 29 29 31 34 47 53 59 68 76 90 94 99 100 100 100 94 92 100 100 100 100
20 20 19 18 20 20 22 22 24 23 22 21 21 22 23 22 20 20 21 26 34 54 62 74 88 93 99 100 100 100 100 100 93 97 100 100 100 100
22 23 24 25 24 26 29 30 29 28 27 24 20 19 19 22 23 22 24 34 45 50 86 94 100 100 100 100 100 100 100 94 98 97 100 100 100 100
28 28 30 32 32 36 39 38 36 27 28 29 27 26 27 29 30 34 46 59 76 94 100 100 100 100 100 100 100 98 100 100 100 100 100 100 100 100
37 42 45 45 44 44 41 36 41 43 41 44 50 51 46 52 62 71 79 95 100 100 100 100 100 100 100 100 98 100 99 100 100 100 100 100 100 92
46 44 46 44 39 34 36 54 69 63 60 66 70 70 70 72 83 91 100 100 100 100 100 100 100 100 100 100 100 96 100 100 100 100 100 100 98 96
34 31 30 32 35 45 60 70 74 80 76 81 82 84 90 93 98 100 99 100 100 100 100 100 100 100 100 100 96 99 100 98 100 100 100 99 100 100
29 33 41 45 50 60 69 78 85 86 92 97 95 95 94 96 100 100 100 100 100 100 100 100 100 100 100 100 98 98 100 99 100 99 98 98 100 100
53 64 68 74 78 80 86 93 95 93 98 100 100 99 98 99 100 98 96 96 99 99 100 100 100 100 100 97 94 96 100 100 100 99 96 100 100 100
54 64 70 74 77 83 90 97 99 100 99 97 100 100 100 100 100 100 100 100 100 100 100 100 98 95 95 98 96 87 95 100 100 100 100 100 94 100
46 48 60 68 76 80 88 94 100 100 100 99 97 95 97 99 99 97 96 97 99 100 100 100 98 98 100 94 83 87 100 100 100 99 98 97 96 98
53 55 66 78 81 87 91 97 100 100 100 100 100 100 100 100 99 96 94 95 98 100 100 100 98 100 100 98 92 83 87 98 100 100 95 95 98 99
62 65 69 76 80 81 84 89 94 97 100 100 100 100 99 98 97 94 96 99 99 100 100 98 96 100 100 98 94 89 84 91 100 100 94 97 100 95
66 71 76 78 83 88 92 96 99 100 100 100 100 100 100 100 98 97 97 98 100 100 100 100 98 100 100 100 97 96 93 84 90 100 100 95 100 96

GFSNE_250_rhum_105.txt.gz
RH
100 100 100 99 100 100 86 62 61 67 87 58 54 54 53 53 52 52 48 39 39 42 41 36 38 42 41 42 41 43 40 39 42 49 50 49 47 55
99 69 70 83 74 72 68 60 53 53 54 50 51 48 44 47 46 38 36 38 43 41 37 35 37 39 42 42 44 41 44 44 50 52 55 51 59 62
67 62 65 65 63 60 48 48 42 32 35 39 38 35 38 39 41 36 37 40 43 41 37 36 37 38 40 42 43 48 48 52 57 56 52 58 72 73
62 59 56 52 47 50 50 50 45 39 36 37 37 40 38 36 36 38 41 44 40 39 38 38 40 44 45 46 50 56 58 64 57 52 58 70 83 83
46 47 53 44 44 49 45 44 39 37 37 38 36 36 35 35 36 40 40 41 40 43 43 42 46 47 51 55 63 66 74 56 59 63 72 88 92 91
45 45 45 38 39 38 37 35 36 36 34 33 32 32 33 36 38 37 38 40 43 46 47 50 52 53 55 62 72 56 55 58 67 75 86 99 100 94
36 39 38 34 33 33 32 29 27 24 25 25 26 30 30 26 23 24 29 30 32 39 44 46 42 43 49 58 58 58 59 67 72 97 98 100 100 90
34 30 31 33 32 26 21 19 21 21 22 23 20 20 21 20 20 22 25 25 26 29 31 32 32 38 40 50 61 61 76 86 87 100 100 100 100 92
32 33 30 24 22 20 19 19 19 18 19 20 21 20 20 21 22 21 21 21 21 24 28 28 36 40 45 56 70 81 92 98 100 100 100 100 100 93
27 23 22 21 20 20 20 20 18 18 19 21 22 23 22 21 21 22 22 24 22 23 21 23 27 31 46 71 82 90 100 100 100 100 100 100 96 98
22 22 21 20 20 20 19 20 21 21 25 27 26 28 28 27 26 22 19 21 22 24 26 27 30 39 71 88 98 100 100 100 100 100 100 100 99 100
22 23 24 24 25 24 23 25 27 27 34 40 43 40 34 26 23 25 25 25 27 27 31 36 51 76 90 95 100 100 100 100 100 100 100 100 100 98
24 24 28 28 24 26 29 32 38 44 51 55 58 41 34 37 38 38 38 34 36 43 52 70 85 91 99 100 100 100 100 100 100 100 100 99 100 100
29 30 28 28 29 34 42 48 50 50 52 55 48 52 58 54 54 55 57 63 66 76 79 91 99 100 100 100 100 100 100 100 100 100 100 100 99 100
32 31 34 37 41 42 43 39 41 40 38 47 61 79 76 73 73 77 83 86 94 100 100 100 100 100 100 100 100 100 100 100 100 100 100 95 97 100
40 40 38 35 33 32 32 30 34 40 49 58 80 83 84 89 94 95 96 96 96 98 100 100 100 100 99 100 100 100 100 100 100 100 100 100 99 99
36 32 31 32 32 34 42 51 58 66 74 82 83 87 91 92 92 94 97 95 94 98 99 100 100 100 100 98 99 100 100 99 100 98 100 98 97 98
33 39 42 45 50 55 63 71 77 83 91 95 97 99 99 100 100 100 99 99 98 100 100 100 100 100 97 92 93 100 96 99 100 96 86 89 96 98
48 52 51 47 50 52 53 53 55 63 74 84 91 97 100 100 100 100 99 99 100 100 100 100 96 94 94 96 100 90 87 95 97 98 100 99 98 100
43 43 46 41 34 37 46 46 51 64 75 83 88 93 99 100 100 99 99 100 100 100 100 99 97 95 100 100 94 84 84 100 100 100 100 100 96 97
42 43 43 44 43 45 52 57 64 74 78 82 87 92 94 93 93 97 98 100 100 100 100 100 100 100 99 100 96 86 87 95 99 100 100 100 98 98
53 54 56 63 70 75 75 74 77 80 80 82 81 82 83 90 93 95 97 98 100 100 100 100 100 100 100 99 95 89 86 89 92 97 98 100 98 99
61 63 75 81 86 86 87 89 89 86 86 86 84 84 83 88 87 89 92 96 97 96 98 98 99 100 100 100 98 95 92 88 93 100 100 100 99 98

GFSNE_250_rhum_108.txt.gz
RH
90 89 87 100 91 98 100 100 100 100 100 100 89 65 63 63 55 47 42 40 37 36 38 39 38 40 43 43 46 44 44 42 44 45 48 47 51 48
100 100 100 100 100 100 100 86 100 94 78 83 65 60 58 51 46 43 38 41 39 40 38 36 38 45 51 51 49 46 46 45 45 49 52 52 56 57
100 99 97 99 100 79 74 84 64 59 61 68 54 41 38 39 33 31 34 38 36 34 33 38 45 50 52 51 54 52 53 52 56 61 66 66 68 76
100 100 100 100 86 99 77 96 63 69 57 39 31 27 30 30 31 33 32 28 25 28 32 39 44 45 51 53 54 54 58 62 66 68 81 91 71 66
100 100 90 100 100 95 76 78 59 51 33 30 29 28 28 32 35 31 23 22 26 30 33 32 31 34 39 45 55 59 63 74 83 87 84 75 69 73
100 100 100 97 99 80 63 62 52 32 33 31 28 31 34 34 24 20 19 20 21 22 24 25 26 32 38 41 47 54 68 78 74 80 81 82 78 85
100 100 100 96 68 63 57 42 34 35 33 29 33 32 23 21 20 20 20 21 22 22 24 25 25 27 30 34 38 42 51 62 63 77 80 82 86 99
100 93 89 70 59 50 34 44 36 30 30 32 26 22 21 21 21 22 21 21 25 22 20 21 23 26 30 34 39 42 51 63 76 75 88 95 100 100
77 72 61 51 45 49 36 32 33 32 29 24 22 22 21 20 21 21 20 21 21 22 24 23 24 24 25 29 34 43 52 64 74 89 100 100 100 100
58 47 56 41 33 32 31 32 33 26 23 23 23 22 22 23 23 25 28 28 26 22 20 20 22 23 28 31 33 36 47 58 80 100 100 100 100 100
52 37 28 29 30 34 32 27 24 25 24 25 25 26 27 28 32 36 30 31 22 24 29 26 26 26 30 34 44 60 66 83 99 100 100 100 100 100
24 25 28 29 25 26 26 26 25 26 27 28 29 32 36 43 44 45 39 30 32 35 37 34 32 37 37 46 54 67 81 100 100 100 100 100 100 100
31 28 24 22 24 24 25 26 28 28 28 30 36 45 48 42 44 44 41 41 45 46 47 52 55 57 57 71 83 92 100 100 100 100 100 100 100 100
24 23 23 22 23 25 28 30 29 34 36 45 47 40 37 38 36 42 49 66 62 60 63 72 80 82 89 95 99 100 100 100 100 100 100 100 100 100
22 23 24 25 29 31 34 37 39 43 42 36 32 31 32 36 44 53 67 79 77 74 80 84 90 92 97 100 100 100 100 100 100 100 100 100 100 100
28 29 34 38 40 41 40 41 39 35 33 33 33 39 49 54 60 75 78 79 87 92 93 94 97 94 99 100 100 100 100 100 100 100 100 100 100 100
36 40 42 45 43 43 42 38 34 38 43 46 51 56 62 68 71 79 90 92 94 100 100 100 100 100 99 94 97 100 100 100 100 100 100 100 100 100
45 48 47 48 46 44 38 44 54 56 53 48 49 53 63 74 83 87 92 98 100 100 100 100 100 100 99 94 92 96 100 100 99 96 93 95 96 100
48 52 51 50 42 42 59 60 54 46 40 40 40 52 58 64 71 81 89 95 100 100 100 100 99 94 94 99 100 100 99 95 100 100 99 94 95 99
58 56 49 48 57 69 65 55 51 43 39 38 46 52 52 60 67 78 89 93 99 100 100 100 100 99 100 100 95 91 91 87 90 98 94 90 85 89
55 53 58 76 78 71 59 55 50 50 55 55 57 64 67 70 72 75 84 89 94 98 100 100 99 100 100 100 100 98 99 100 100 100 100 100 99 96
65 73 78 82 82 72 68 65 59 64 69 62 61 66 73 81 81 83 85 88 91 94 96 96 99 100 100 99 100 97 94 93 97 100 100 100 100 100
77 86 88 84 78 76 80 80 79 79 75 76 76 74 74 73 73 73 72 76 77 81 82 80 87 93 100 100 99 100 98 97 93 100 100 99 100 100

GFSNE_250_rhum_111.txt.gz
RH
84 74 100 75 100 100 100 95 95 58 100 100 100 100 100 100 98 80 75 86 64 52 30 26 26 31 29 23 25 34 41 47 59 63 58 56 57 61
94 100 100 90 100 72 98 100 100 92 88 97 100 100 100 91 86 78 84 68 50 27 23 28 29 25 21 21 27 37 50 56 57 58 61 62 61 64
100 100 100 99 100 84 100 78 100 99 100 100 89 85 74 92 78 71 46 37 27 24 27 25 20 20 20 22 24 28 34 39 44 51 61 66 72 79
100 90 79 74 100 98 100 100 66 87 84 86 84 78 88 89 61 44 35 26 25 26 22 20 18 19 20 20 23 27 31 40 48 58 74 82 89 98
100 93 96 96 100 99 81 68 90 87 92 100 84 73 86 56 51 44 30 26 26 22 21 20 19 20 21 22 23 28 31 41 56 76 90 98 97 96
100 100 100 100 100 100 100 100 98 98 100 83 70 54 64 53 55 37 26 26 23 20 21 22 22 22 22 23 24 27 30 37 49 76 81 94 97 91
100 100 100 100 94 100 100 93 94 100 80 72 62 71 56 57 38 28 26 23 20 22 21 21 20 23 26 27 27 30 33 39 52 77 92 100 94 91
100 100 100 100 100 100 100 100 95 94 83 75 80 72 56 27 26 28 23 22 24 23 22 21 26 28 26 25 25 27 32 39 52 78 95 100 97 100
100 100 100 100 100 100 94 85 88 93 58 82 66 64 27 27 25 22 23 25 26 25 25 29 28 24 21 23 23 24 26 30 38 52 81 97 98 100
100 100 100 100 99 100 95 99 92 96 86 61 45 22 26 21 21 23 25 28 27 29 34 27 25 25 27 30 28 27 31 38 44 54 63 77 96 100
99 100 100 100 100 89 87 84 75 75 64 25 21 22 22 20 21 24 27 30 32 39 32 29 32 35 32 34 33 34 36 43 54 68 78 90 98 100
100 99 100 100 100 96 96 80 92 59 23 22 20 22 20 22 25 28 33 35 39 32 31 32 40 45 42 44 45 50 58 56 60 67 77 88 100 100
100 99 98 100 100 93 91 71 38 22 17 19 19 21 24 28 32 35 38 35 29 29 34 39 53 55 55 54 57 64 75 78 78 89 85 97 100 100
100 100 96 97 95 78 49 20 16 20 19 22 26 27 32 36 38 36 28 29 30 40 48 52 64 64 64 66 71 73 82 91 99 100 100 100 100 100
78 77 71 60 40 24 19 19 20 20 26 28 35 37 38 39 32 30 32 35 47 51 61 79 77 71 74 76 82 84 87 92 98 100 100 100 100 100
31 25 24 24 23 24 22 24 29 32 38 39 39 40 38 30 33 43 48 53 57 66 71 88 97 91 87 87 86 91 99 100 100 100 100 100 100 100
30 31 31 29 29 32 36 37 40 42 46 46 42 36 31 42 48 47 46 51 60 75 87 95 100 100 100 94 90 97 98 99 100 100 100 100 100 100
45 47 48 50 47 47 46 47 47 52 48 42 34 34 46 46 43 41 40 44 55 67 82 90 97 99 99 100 99 100 100 100 98 91 92 95 100 100
71 71 68 68 64 66 62 55 57 52 43 36 42 52 45 41 37 34 34 42 49 59 72 86 90 92 100 100 100 100 96 90 88 89 98 100 98 100
100 97 91 88 83 74 67 64 61 50 44 52 62 55 47 43 42 43 46 53 63 71 76 78 82 89 100 98 95 97 99 98 99 98 95 94 92 93
98 97 96 92 85 83 77 63 57 55 64 72 72 62 58 56 60 62 65 64 67 74 83 86 90 96 99 100 99 94 97 100 100 100 100 100 96 90
98 96 90 91 91 86 75 71 73 78 82 82 75 71 71 71 69 73 75 74 76 78 78 78 83 87 94 97 97 97 99 100 100 100 100 100 96 94
100 98 94 91 92 88 89 88 87 84 86 85 84 84 84 85 84 85 84 83 80 79 80 81 81 83 90 95 94 96 98 98 97 100 100 96 96 98

GFSNE_250_rhum_114.txt.gz
RH
100 100 100 90 82 64 68 78 96 92 94 95 100 93 69 96 99 100 96 100 68 100 71 60 51 48 28 22 19 17 18 18 20 25 30 39 59 75
97 100 100 75 75 95 100 100 100 100 100 100 90 95 97 88 68 96 97 71 82 75 70 58 60 36 20 19 17 18 18 19 21 25 29 36 46 86
94 97 95 96 100 98 100 100 100 94 94 100 100 65 100 94 100 86 86 100 80 64 66 76 65 19 19 16 16 19 19 20 21 24 31 43 64 77
100 100 100 100 100 100 100 100 100 100 100 100 85 94 100 96 97 94 79 78 73 70 89 74 72 21 17 16 18 19 20 20 21 25 37 45 66 84
100 100 85 100 100 100 100 100 100 81 100 100 100 94 92 89 71 71 79 67 83 79 84 84 42 20 16 19 19 20 21 24 28 30 34 49 74 79
100 100 100 100 100 100 100 100 100 98 100 100 100 100 93 79 82 68 82 88 96 68 58 77 21 20 18 18 21 24 26 25 29 37 42 59 78 95
100 100 94 100 100 99 90 100 98 100 86 98 100 100 91 81 75 94 87 82 74 64 67 25 24 20 19 20 25 24 20 20 20 30 47 59 72 95
100 100 100 100 100 100 100 100 100 100 100 100 100 100 96 62 91 86 86 76 66 75 42 20 24 21 22 26 25 22 21 22 23 24 36 55 75 88
96 100 100 100 100 100 100 100 100 100 84 78 75 83 97 100 91 99 86 84 62 48 21 22 23 25 28 29 23 24 26 26 27 30 35 38 67 87
100 100 100 100 100 100 100 100 100 72 82 89 100 89 93 90 96 90 78 78 51 20 22 24 27 30 32 28 25 28 30 31 30 31 41 50 62 77
100 100 100 100 100 100 100 91 62 98 99 100 88 86 93 92 62 60 55 28 22 20 23 28 33 33 30 27 30 38 41 37 37 38 42 58 73 76
100 100 100 100 100 100 99 82 91 100 100 100 100 100 99 78 58 44 21 20 21 24 28 32 34 29 28 32 41 46 48 46 48 51 56 59 68 81
100 100 100 100 100 76 95 99 97 73 74 85 90 92 65 57 36 22 21 22 25 29 31 33 28 30 35 43 51 52 56 60 58 51 68 82 84 78
100 99 100 100 100 100 100 99 92 81 96 79 79 64 33 25 22 23 25 28 30 31 32 29 38 42 42 49 66 61 64 66 72 76 75 80 87 92
99 100 100 99 100 100 100 97 97 72 71 58 46 26 25 26 26 29 31 31 33 33 32 46 47 48 51 54 73 78 75 72 76 78 83 88 92 98
100 98 98 100 98 78 82 71 70 56 39 29 30 32 34 32 34 34 33 36 34 32 45 46 45 52 62 68 80 90 91 86 83 81 81 83 86 91
98 100 97 77 62 52 44 38 41 51 46 44 45 44 43 41 40 40 40 36 32 44 42 39 40 46 61 71 85 91 94 98 97 95 96 95 97 98
57 52 48 47 47 51 66 70 72 71 71 68 60 54 52 53 49 48 38 38 45 41 37 36 36 42 59 73 79 96 94 97 100 97 99 100 100 100
54 64 67 66 78 89 91 93 91 96 94 83 74 69 65 62 57 42 45 55 48 41 38 40 42 47 59 73 83 91 90 91 96 100 100 97 98 100
50 57 67 79 86 92 95 96 99 94 90 90 85 81 79 67 56 58 70 68 56 48 46 50 53 64 72 79 87 83 93 98 100 100 100 100 98 96
64 75 80 84 89 93 94 95 90 88 91 93 90 90 80 74 74 80 82 80 70 65 65 67 67 76 81 84 85 85 94 100 100 100 100 100 100 100
71 73 81 89 95 95 98 94 89 92 96 96 96 93 89 88 86 87 90 90 88 85 80 80 82 83 88 91 90 87 86 97 100 100 100 100 98 99
75 76 83 93 100 100 98 97 96 95 95 97 96 90 91 92 93 94 94 94 90 89 86 86 92 95 96 97 92 91 92 94 98 100 98 94 94 93

GFSNE_250_rhum_117.txt.gz
RH
100 100 100 78 61 68 57 50 52 71 76 88 90 85 99 88 76 90 75 100 100 81 100 99 74 58 45 80 78 71 42 37 16 18 20 21 24 29
100 100 82 94 86 74 65 71 92 90 92 92 96 88 70 95 95 97 97 100 98 100 74 80 87 63 78 90 79 48 32 20 16 18 21 22 25 31
100 100 94 84 66 65 78 92 100 100 100 100 86 100 93 93 99 100 100 87 76 81 72 63 95 63 91 84 72 56 28 16 16 20 24 26 26 34
90 94 92 76 73 60 74 93 100 100 91 100 100 99 92 100 100 100 100 100 98 92 82 67 54 57 96 93 71 55 19 17 19 23 28 32 36 39
84 73 86 87 81 97 100 100 95 94 100 100 100 100 100 93 100 100 93 97 93 71 96 87 61 94 99 88 65 21 16 18 24 24 24 27 40 50
81 100 88 99 100 100 94 100 100 93 100 100 100 100 100 100 98 99 72 87 100 94 90 85 80 96 76 77 31 18 18 21 26 21 21 22 39 65
95 100 100 100 100 96 100 100 100 100 100 91 100 100 100 99 99 87 82 92 80 73 85 86 96 85 71 49 19 19 22 26 25 21 23 23 30 58
100 100 100 100 100 100 100 100 100 100 100 71 83 100 100 68 84 51 59 66 86 78 100 98 83 66 38 18 18 22 28 29 23 22 25 27 31 49
100 100 100 100 100 100 100 100 100 100 94 100 100 89 74 94 90 51 89 96 100 99 79 71 52 35 22 20 20 27 33 27 23 26 27 29 31 34
100 100 100 100 100 98 100 98 100 92 98 100 94 76 85 79 77 95 100 100 98 94 76 76 51 19 22 21 25 30 33 25 25 32 31 33 31 35
100 100 100 100 100 100 100 100 100 100 100 69 79 95 98 100 87 100 100 94 89 92 77 45 24 20 23 23 27 32 27 28 33 36 38 38 33 35
100 100 100 100 100 100 99 83 100 100 96 100 100 99 98 90 100 100 95 98 88 72 56 22 22 25 24 25 29 28 33 34 38 43 43 42 42 45
100 100 100 100 100 91 97 100 100 100 94 100 99 100 100 88 92 94 95 82 59 38 30 28 29 28 25 29 28 38 43 37 43 44 50 48 54 61
100 100 100 99 100 100 100 100 96 100 100 100 99 100 96 97 98 91 75 59 41 33 38 34 35 31 32 31 35 46 46 38 50 53 52 57 63 74
100 100 100 100 100 100 100 100 100 100 92 99 100 100 93 93 73 81 62 46 46 53 44 45 40 38 39 35 46 43 48 47 57 67 63 63 59 74
100 100 100 100 100 100 100 100 100 90 100 100 94 100 79 67 63 47 62 65 64 61 57 52 44 44 38 50 48 40 47 62 63 73 77 77 72 71
100 100 100 100 100 100 100 100 100 100 99 91 75 50 62 65 72 81 84 84 79 75 66 56 54 43 51 50 45 42 42 64 74 80 83 83 80 77
100 100 100 99 95 94 99 99 100 100 88 54 50 70 83 83 92 95 96 97 95 84 73 66 53 59 55 49 42 42 46 58 73 80 94 93 90 83
100 98 84 41 62 55 39 56 60 60 63 62 69 82 88 98 100 100 100 100 100 92 80 63 62 72 56 47 49 49 52 65 78 87 95 98 100 100
33 28 26 30 39 46 53 57 62 64 69 79 88 92 99 100 100 100 100 100 100 97 78 71 82 77 69 61 61 56 63 73 83 89 98 100 99 100
30 34 43 50 51 49 52 67 78 82 88 95 98 99 100 100 95 99 100 100 100 99 89 90 90 88 82 79 76 73 79 84 85 87 92 96 100 100
52 59 62 67 70 74 81 83 84 86 92 98 100 100 100 94 94 100 100 100 100 96 91 92 97 100 99 93 83 84 85 89 93 98 99 97 97 99
55 60 64 72 78 79 78 81 87 95 95 96 100 100 100 97 100 100 100 100 100 99 99 98 98 100 100 100 99 94 90 88 100 100 91 87 96 100

GFSNE_250_rhum_120.txt.gz
RH
100 100 74 81 68 73 56 60 76 81 97 60 58 68 73 72 68 63 75 77 71 64 59 87 74 83 89 90 65 54 97 99 74 49 22 17 20 25
94 75 87 100 100 100 82 73 82 83 83 99 88 89 86 84 67 68 82 83 69 76 74 98 100 100 100 97 56 90 100 84 60 44 19 20 21 28
94 100 100 100 98 100 100 100 100 97 91 74 86 98 100 79 77 84 71 71 76 84 99 100 88 100 100 80 68 100 92 68 57 23 20 20 26 28
99 100 100 94 100 100 100 100 89 95 89 100 100 89 87 87 74 84 79 79 79 93 100 100 90 97 88 81 90 98 92 53 41 19 20 23 28 28
99 100 100 100 100 100 100 100 96 100 100 91 100 88 98 77 74 87 87 96 100 100 100 100 100 90 82 95 100 100 71 54 27 20 20 27 30 25
100 100 100 100 100 100 100 97 100 100 98 98 93 93 100 70 72 89 100 100 100 96 100 100 60 74 100 100 96 84 82 43 21 21 22 30 28 26
77 97 87 72 97 83 98 100 100 100 92 100 100 93 88 80 100 100 100 100 100 100 93 100 93 100 99 100 80 64 56 27 23 24 24 30 27 27
97 100 100 100 100 75 99 100 89 89 90 100 99 100 89 100 100 100 100 100 100 95 97 75 100 100 100 96 85 76 44 32 25 26 24 28 27 31
100 100 100 100 100 100 100 100 100 100 100 100 100 100 91 100 100 100 100 100 100 95 94 100 100 84 91 89 88 47 37 27 29 26 26 25 28 34
100 100 100 100 100 100 100 100 100 100 100 100 100 100 99 100 100 100 100 100 71 89 97 100 99 85 100 66 63 40 32 29 30 25 23 26 32 37
100 100 100 100 100 100 100 99 97 100 100 100 100 100 100 100 100 100 91 100 100 100 100 84 95 82 79 75 40 38 34 35 29 25 24 31 33 39
100 100 100 100 100 100 100 100 100 100 100 100 100 100 100 100 97 88 98 95 88 99 100 96 99 92 60 51 44 44 42 37 32 27 33 36 35 39
100 100 100 100 100 100 100 100 100 100 97 100 100 100 91 100 100 89 100 100 99 98 98 98 97 82 74 43 47 48 47 41 36 38 44 43 42 42
100 100 100 100 100 100 100 100 100 100 100 85 92 100 99 100 100 99 97 99 100 100 98 99 77 80 61 46 53 56 52 48 46 53 52 51 52 54
100 100 100 100 100 100 100 100 100 100 100 100 99 100 99 90 98 96 100 99 99 87 83 70 53 63 67 64 64 66 64 55 64 66 55 61 69 70
100 100 100 100 100 100 100 100 96 97 100 98 100 100 100 100 100 100 100 89 99 72 64 68 60 64 79 85 78 74 68 61 78 77 68 70 68 77
100 100 100 100 100 100 100 100 100 100 100 100 100 100 100 100 100 98 78 61 77 89 71 64 72 84 92 92 87 80 68 71 78 78 75 75 77 82
100 100 100 100 100 100 100 100 100 100 100 100 100 92 69 56 54 65 62 72 76 81 78 82 83 91 95 93 88 85 80 84 74 70 72 78 88 86
100 100 100 100 100 98 95 100 100 92 76 53 43 50 54 59 68 68 79 84 94 91 86 82 87 98 95 94 90 87 93 88 73 69 76 78 87 90
22 28 32 25 28 34 34 29 28 37 39 43 49 58 68 73 74 90 93 97 97 90 88 90 97 100 95 98 97 94 100 92 82 80 82 86 89 98
12 15 20 25 28 28 31 29 32 41 42 48 60 66 75 78 87 94 99 98 92 92 93 98 100 100 100 98 100 100 100 99 91 88 91 89 92 93
14 19 24 29 32 32 33 36 43 43 49 58 67 76 81 83 87 95 99 100 95 94 99 100 100 100 100 100 95 96 100 100 100 100 97 92 92 98
22 29 34 40 44 51 60 66 65 66 71 66 73 80 87 89 87 94 93 99 99 98 99 100 100 100 100 100 100 97 94 100 100 98 97 100 100 100

GFSNE_250_rhum_123.txt.gz
RH
100 100 100 99 100 100 100 97 61 61 88 75 45 43 97 98 100 100 94 88 88 76 79 95 53 64 53 89 97 100 100 77 100 91 92 87 65 58
100 97 92 93 100 100 100 100 100 90 79 52 80 100 97 97 100 99 85 90 96 74 71 73 60 72 72 100 92 100 100 97 100 99 96 78 60 47
100 100 96 100 75 83 79 100 100 87 90 91 96 72 100 100 99 81 72 67 73 67 72 73 76 98 84 75 72 77 88 93 100 98 83 69 52 42
74 60 63 83 89 100 91 100 100 100 99 100 100 100 100 100 94 84 88 95 68 58 77 96 97 90 100 76 81 88 83 98 92 87 91 83 44 37
100 93 97 87 75 91 100 100 100 100 100 100 100 100 92 80 92 74 99 80 86 83 81 94 98 100 87 88 99 100 100 100 98 98 84 48 38 28
100 100 100 100 90 100 100 100 100 100 100 100 100 99 73 94 100 98 88 82 86 86 100 100 100 100 99 100 92 93 100 98 96 84 74 58 37 25
100 100 100 100 100 100 100 98 100 93 91 100 79 61 77 100 100 93 98 96 100 100 100 100 97 84 100 93 80 96 92 79 99 85 78 64 46 28
100 100 100 100 96 84 92 86 87 75 65 82 77 89 100 100 99 93 100 100 100 100 100 86 83 100 100 92 98 100 98 63 69 99 76 61 37 27
95 99 93 72 79 80 73 96 88 85 86 94 100 94 99 100 99 100 100 100 100 100 100 98 94 100 99 96 96 95 100 80 72 95 61 45 34 29
100 100 100 100 100 100 100 100 99 100 99 97 98 93 100 100 100 100 100 98 100 93 100 90 100 96 100 97 90 85 96 82 83 82 45 41 33 31
100 100 100 100 100 100 100 100 100 100 100 100 100 100 100 100 100 100 98 100 100 92 99 100 97 94 82 97 91 99 100 88 98 70 49 41 33 30
100 100 100 100 100 100 100 100 100 100 99 100 95 100 100 100 100 100 100 100 100 100 100 100 91 88 100 94 86 83 100 84 71 48 50 46 36 35
100 100 100 100 100 100 100 100 100 100 100 100 100 100 100 100 100 97 100 100 100 94 100 92 87 100 100 100 93 100 84 78 63 60 58 56 44 43
100 100 100 100 100 100 100 100 100 100 100 100 100 100 100 100 100 92 100 97 98 98 100 98 100 100 100 100 99 90 71 71 71 79 73 63 53 59
100 100 100 100 100 100 100 100 100 100 100 100 100 100 100 100 99 100 100 100 100 100 100 100 89 100 82 100 93 82 83 66 89 91 81 76 63 70
100 100 100 100 100 100 100 100 100 100 100 100 100 100 100 100 100 100 100 100 100 100 100 97 92 65 86 80 88 78 73 79 94 92 80 80 69 80
100 100 100 100 100 100 100 100 100 100 100 100 100 100 100 100 100 100 100 100 100 97 82 73 72 83 86 88 83 73 80 87 95 95 86 85 86 90
100 100 100 100 100 100 100 100 100 100 100 100 100 100 100 100 100 100 100 99 70 59 71 77 88 91 90 88 77 79 88 93 96 94 95 91 91 89
13 26 55 82 100 100 100 100 100 100 100 100 100 89 100 89 85 96 62 51 56 67 84 93 92 93 98 87 84 88 92 92 94 96 100 96 98 93
17 19 19 17 16 16 20 27 36 44 53 55 55 47 56 59 57 56 61 68 77 92 93 92 95 92 90 90 89 96 96 93 98 100 100 100 100 100
15 15 20 23 22 19 17 18 24 32 38 36 35 42 60 64 63 73 77 84 89 91 96 95 94 96 95 94 97 97 96 96 99 97 100 100 100 100
13 13 14 20 22 22 24 26 28 36 46 42 44 65 70 72 72 88 91 90 90 95 93 95 100 99 94 94 94 93 93 98 100 100 100 99 100 100
9 9 12 17 24 24 27 32 37 49 52 49 47 53 62 68 76 85 93 86 87 91 99 99 97 98 100 100 99 95 94 96 100 98 99 100 100 100

GFSNE_250_rhum_126.txt.gz
RH
100 100 100 100 100 100 100 100 98 78 100 100 76 99 91 72 90 76 85 100 73 100 100 100 72 56 54 80 68 62 78 97 91 98 71 88 97 97
100 100 97 100 100 100 79 88 100 90 74 79 79 90 61 80 82 100 88 77 92 100 100 94 59 56 80 99 60 60 86 98 97 79 97 91 86 96
97 100 99 100 100 91 85 100 76 71 86 94 90 90 90 80 61 97 90 85 100 99 100 92 57 77 89 71 65 56 100 88 100 100 86 76 100 82
95 100 100 92 87 92 83 79 99 100 95 90 90 93 57 77 98 89 100 100 100 100 87 58 77 76 92 67 78 90 100 100 99 78 92 99 86 76
100 100 100 100 99 87 94 99 90 77 94 90 74 60 98 92 100 100 100 100 99 78 78 77 67 95 86 76 79 100 87 99 94 98 77 69 71 83
100 100 99 100 89 95 85 80 57 70 91 83 99 96 97 100 100 100 72 68 74 66 74 87 97 82 74 93 100 90 100 92 96 100 98 90 78 61
100 100 96 90 82 74 61 94 78 88 95 100 98 100 100 92 67 68 63 85 70 88 82 97 93 98 100 100 87 100 95 100 93 93 89 83 80 80
91 88 82 85 82 84 80 89 100 100 100 98 100 96 68 63 61 84 97 98 69 100 100 100 100 100 100 100 100 99 100 87 87 87 95 88 88 91
100 100 100 100 100 100 100 100 100 100 89 87 79 68 89 100 94 99 100 99 97 100 100 100 99 98 100 100 76 100 97 100 81 88 94 82 76 66
100 100 100 100 100 78 99 99 90 89 78 94 100 98 90 100 100 100 100 100 100 100 100 100 100 100 98 100 100 98 88 88 96 99 84 74 81 77
100 100 100 100 94 99 100 100 100 100 100 100 100 100 100 100 100 100 100 100 100 100 100 97 100 96 100 95 94 92 90 100 100 100 80 75 67 85
100 100 100 100 100 100 100 100 100 100 100 100 100 100 100 100 100 100 100 100 100 100 100 100 100 100 91 94 91 82 100 100 100 95 76 59 81 82
100 100 100 100 100 100 100 100 100 100 100 100 100 100 100 100 100 100 100 100 100 100 100 100 100 100 99 95 90 100 100 100 98 73 56 80 92 82
100 100 100 100 100 100 100 100 100 100 100 100 100 100 100 100 100 100 100 100 100 100 100 100 100 100 98 98 100 100 100 94 69 52 82 94 98 85
100 100 100 100 100 100 100 100 100 100 100 100 100 100 100 100 100 100 100 100 100 100 100 92 100 100 100 100 100 100 82 72 51 70 90 95 91 92
100 100 100 100 100 100 100 100 100 100 100 100 100 100 100 100 100 100 100 100 100 97 100 100 100 100 100 100 100 88 65 77 64 84 91 94 94 95
19 70 100 100 100 100 100 100 100 100 100 100 100 100 100 100 100 100 100 100 100 100 100 100 100 100 100 94 86 67 80 75 82 86 88 90 92 93
9 11 13 18 62 100 99 100 100 100 100 100 100 100 100 100 100 100 100 100 100 100 100 100 99 97 68 75 74 83 83 85 88 88 88 89 95 99
10 10 12 13 16 19 26 44 85 100 100 100 100 100 100 100 100 100 100 100 100 93 62 80 66 79 82 88 85 87 93 94 96 90 87 93 99 100
7 8 10 12 14 17 22 28 32 36 39 44 50 55 60 62 61 51 38 37 40 52 62 79 84 85 90 93 97 97 96 96 98 92 90 98 100 98
5 7 8 9 13 15 15 16 23 32 36 37 35 35 36 37 37 39 38 44 61 73 84 90 89 89 94 100 100 100 100 100 99 100 99 96 100 100
4 5 6 8 9 11 11 10 12 16 28 30 31 34 38 42 39 44 54 61 80 86 88 89 95 100 100 100 100 100 100 99 93 100 100 100 100 100
4 4 5 7 8 9 10 8 11 18 25 28 26 38 46 47 50 65 71 82 85 90 95 99 100 100 100 100 99 100 100 99 100 100 98 96 96 100